Laatste waarneming: 07:56
Temperatuur:13,1°C
Dauwpunt:12,2°C
Rel. vocht:94,6%
Natte-bol:12,8°C
Wind (gem. 10 min.):0,1 m/s
Wind (max. 10 min.):1.7E+308 m/s
Windrichting:99°
Neerslagsom:0,4 mm
Neerslagintensiteit:0,0 mm/u
Luchtdruk:1012,1 hPa
Straling:58,0 W/m2
 
Maximumtemp.:14,6°C (00:11)
Minimumtemp.:12,9°C (06:07)
Hoogste windstoot:- m/s (01:35)


Bekijk de verwachting.

Bekijk de grafieken.
Bekijk het weekoverzicht.
Bekijk het maandoverzicht.
Bekijk het jaaroverzicht.
Dagtabel
Tijd Temp. Dauwp. Natte-bol Rel. Hum. Windsnelh. Windricht. Windstoot Neerslag Straling Luchtdruk
 
07:56 13,1 12,2 12,8 94,6 0,1 99 - 0,4 58 1.012,1
07:55 13,1 12,1 12,7 94,0 0,0 99 - 0,4 56 1.012,1
07:54 13,1 12,2 12,8 94,7 0,0 99 - 0,4 53 1.012,1
07:53 13,1 12,1 12,8 94,2 0,1 99 - 0,4 51 1.012,1
07:52 13,1 12,1 12,7 94,0 0,2 99 - 0,4 51 1.012,1
07:51 13,1 12,1 12,7 94,0 0,2 99 - 0,4 51 1.012,1
07:50 13,1 12,1 12,7 94,0 0,2 101 - 0,4 53 1.012,1
07:49 13,1 12,1 12,7 94,0 0,2 96 - 0,4 53 1.012,0
07:48 13,1 12,1 12,7 94,0 0,1 197 - 0,4 54 1.012,0
07:47 13,1 12,1 12,7 94,0 0,1 197 - 0,4 52 1.012,0
07:46 13,0 12,1 12,7 94,0 0,1 197 - 0,4 49 1.012,0
07:45 13,0 12,1 12,7 94,0 0,2 209 - 0,4 50 1.012,0
07:44 13,1 12,1 12,7 94,0 0,1 209 - 0,4 49 1.012,0
07:43 13,0 12,0 12,7 94,0 0,2 78 - 0,4 49 1.012,0
07:42 13,0 12,0 12,7 94,0 0,3 104 - 0,4 50 1.012,0
07:41 13,0 12,1 12,7 94,0 0,3 104 - 0,4 51 1.012,0
07:40 13,0 12,1 12,7 94,0 0,4 104 - 0,4 51 1.012,0
07:39 13,0 12,0 12,7 94,0 0,4 103 - 0,4 52 1.012,0
07:38 13,0 12,0 12,7 94,0 0,6 75 - 0,4 53 1.012,0
07:37 13,0 12,0 12,7 94,0 0,6 94 - 0,4 52 1.012,0
07:36 13,0 12,1 12,7 94,0 0,3 107 - 0,4 47 1.012,0
07:35 13,0 12,1 12,7 94,0 0,2 314 - 0,4 47 1.011,9
07:34 13,0 12,1 12,7 94,0 0,4 159 - 0,4 44 1.011,9
07:33 13,0 12,1 12,7 94,0 0,6 101 - 0,4 42 1.011,9
07:32 13,0 12,1 12,7 94,0 0,3 57 - 0,4 40 1.012,0
07:31 13,0 12,1 12,7 94,0 0,1 267 - 0,4 40 1.012,0
07:30 13,1 12,1 12,7 94,0 0,1 97 - 0,4 40 1.011,9
07:29 13,0 12,1 12,7 94,0 0,4 327 - 0,4 39 1.011,9
07:28 13,0 12,1 12,7 94,0 0,7 20 - 0,4 39 1.012,0
07:27 13,0 12,1 12,7 94,0 0,7 345 - 0,4 36 1.012,0
07:26 13,0 12,1 12,7 94,0 0,6 345 - 0,4 35 1.012,0
07:25 13,0 12,1 12,7 94,0 0,3 31 - 0,4 36 1.012,0
07:24 13,0 12,1 12,7 94,0 0,6 117 - 0,4 39 1.012,0
07:23 13,0 12,1 12,7 94,0 1,0 116 - 0,4 39 1.011,9
07:22 13,1 12,1 12,7 94,0 1,2 127 - 0,4 39 1.011,9
07:21 13,0 12,1 12,7 94,0 1,1 70 - 0,4 38 1.011,9
07:20 13,0 12,1 12,7 94,0 1,0 95 - 0,4 35 1.011,9
07:19 13,1 12,1 12,7 94,0 0,9 105 - 0,4 35 1.011,9
07:18 13,1 12,1 12,7 94,0 0,9 141 - 0,4 32 1.011,9
07:17 13,1 12,1 12,7 94,0 0,6 79 - 0,4 30 1.011,9
07:16 13,0 12,1 12,7 94,0 0,5 64 - 0,4 29 1.011,9
07:15 13,1 12,1 12,7 94,0 0,6 140 - 0,4 27 1.011,9
07:14 13,1 12,1 12,7 94,0 0,6 146 - 0,4 26 1.011,9
07:13 13,1 12,1 12,7 94,0 0,6 64 - 0,4 26 1.011,9
07:12 13,1 12,1 12,7 94,0 0,5 59 - 0,4 26 1.011,9
07:11 13,1 12,1 12,7 94,0 0,3 135 - 0,4 27 1.011,9
07:10 13,1 12,1 12,7 94,0 0,3 78 - 0,4 28 1.011,9
07:09 13,1 12,1 12,7 94,0 0,4 91 - 0,4 30 1.011,9
07:08 13,1 12,1 12,7 94,0 0,4 87 - 0,4 30 1.011,9
07:07 13,1 12,1 12,7 94,0 0,4 119 - 0,4 30 1.011,9
07:06 13,1 12,1 12,7 94,0 0,3 133 - 0,4 30 1.011,8
07:05 13,1 12,1 12,7 94,0 0,2 141 - 0,4 30 1.011,8
07:04 13,1 12,1 12,7 94,0 0,0 74 - 0,4 30 1.011,8
07:03 13,1 12,1 12,7 94,0 0,1 239 - 0,4 28 1.011,8
07:02 13,1 12,1 12,7 94,0 0,1 238 - 0,4 25 1.011,8
07:01 13,1 12,1 12,7 94,0 0,2 255 - 0,4 20 1.011,9
07:00 13,1 12,1 12,7 94,0 0,3 255 - 0,4 17 1.011,9
 
06:59 13,0 12,1 12,7 94,0 0,4 255 - 0,4 15 1.011,9
06:58 13,0 12,1 12,7 94,0 0,2 222 - 0,4 14 1.011,9
06:57 13,0 12,1 12,7 94,0 0,1 98 - 0,4 14 1.011,9
06:56 13,1 12,1 12,7 94,0 0,0 263 - 0,4 14 1.011,9
06:55 13,0 12,1 12,7 94,0 0,0 263 - 0,4 16 1.011,9
06:54 13,0 12,1 12,7 94,0 0,0 263 - 0,4 16 1.011,9
06:53 13,0 12,0 12,7 94,0 0,0 263 - 0,4 16 1.011,9
06:52 13,0 12,0 12,7 94,0 0,0 263 - 0,4 15 1.011,9
06:51 13,0 12,1 12,7 94,0 0,0 263 - 0,4 12 1.011,9
06:50 13,0 12,0 12,7 94,0 0,0 263 - 0,4 12 1.011,8
06:49 13,0 12,0 12,7 94,0 0,0 263 - 0,4 12 1.011,8
06:48 13,0 12,1 12,7 94,0 0,0 263 - 0,4 10 1.011,9
06:47 13,0 12,0 12,7 94,0 0,0 263 - 0,4 9 1.011,9
06:46 13,0 12,0 12,7 94,0 0,0 263 - 0,4 9 1.011,9
06:45 13,0 12,0 12,7 94,0 0,0 263 - 0,4 11 1.011,9
06:44 13,0 12,0 12,7 94,0 0,0 263 - 0,4 11 1.011,9
06:43 13,0 12,0 12,7 94,0 0,0 263 - 0,4 11 1.011,9
06:42 13,0 12,0 12,7 94,0 0,1 263 - 0,4 11 1.011,9
06:41 13,0 12,0 12,7 94,0 0,2 263 - 0,4 10 1.011,9
06:40 13,0 12,0 12,7 94,0 0,3 263 - 0,4 8 1.011,9
06:39 13,0 12,0 12,7 94,0 0,5 263 - 0,4 7 1.011,9
06:38 13,0 12,0 12,7 94,0 0,6 263 - 0,4 7 1.011,9
06:37 13,0 12,0 12,7 94,0 0,6 263 - 0,4 7 1.011,9
06:36 13,0 12,0 12,7 94,0 0,6 263 - 0,4 8 1.011,9
06:35 13,0 12,0 12,7 94,0 0,8 263 - 0,4 9 1.011,9
06:34 13,0 12,0 12,7 94,0 1,0 263 - 0,4 9 1.011,9
06:33 13,0 12,0 12,7 94,0 1,1 263 - 0,4 9 1.011,9
06:32 13,0 12,0 12,7 94,0 1,1 263 - 0,4 9 1.011,9
06:31 13,0 12,0 12,7 94,0 1,2 263 - 0,4 9 1.011,9
06:30 13,0 12,0 12,7 94,0 1,3 263 - 0,4 9 1.011,9
06:29 13,0 12,0 12,7 94,0 1,5 263 - 0,4 8 1.011,8
06:28 13,0 12,0 12,7 94,0 1,6 263 - 0,4 7 1.011,8
06:27 13,0 12,1 12,7 94,0 1,6 268 - 0,4 7 1.011,8
06:26 13,0 12,1 12,7 94,0 1,5 269 - 0,4 7 1.011,8
06:25 13,0 12,1 12,7 94,0 1,4 269 - 0,4 7 1.011,8
06:24 13,0 12,1 12,7 94,0 1,4 288 - 0,4 7 1.011,8
06:23 13,0 12,1 12,7 94,0 1,6 288 - 0,4 7 1.011,8
06:22 13,0 12,1 12,7 94,0 1,9 280 - 0,4 5 1.011,8
06:21 13,0 12,1 12,7 94,0 2,3 284 - 0,4 5 1.011,8
06:20 13,0 12,1 12,7 94,0 2,5 278 - 0,4 5 1.011,9
06:19 13,0 12,0 12,7 94,0 2,3 284 - 0,4 5 1.011,9
06:18 13,0 12,0 12,7 94,0 2,1 272 - 0,4 5 1.011,9
06:17 13,0 12,0 12,7 94,0 2,0 255 - 0,4 5 1.011,8
06:16 13,0 12,0 12,7 94,0 2,1 247 - 0,4 5 1.011,8
06:15 13,0 12,0 12,7 94,0 2,3 244 - 0,4 5 1.011,8
06:14 13,0 12,0 12,7 94,0 2,2 256 - 0,4 4 1.011,9
06:13 13,0 12,0 12,7 94,0 2,0 244 - 0,4 0 1.011,9
06:12 13,0 12,0 12,7 94,0 1,9 253 - 0,4 0 1.011,8
06:11 13,0 12,0 12,7 94,0 1,8 249 - 0,4 0 1.011,8
06:10 13,0 12,0 12,7 94,0 1,9 247 - 0,4 0 1.011,8
06:09 13,0 12,0 12,7 94,0 1,8 259 - 0,4 0 1.011,8
06:08 13,0 12,0 12,6 94,0 1,8 259 - 0,4 0 1.011,8
06:07 12,9 12,0 12,6 94,0 1,8 253 - 0,4 0 1.011,8
06:06 13,0 12,0 12,6 94,0 1,9 253 - 0,4 0 1.011,8
06:05 13,0 12,0 12,7 94,0 2,1 255 - 0,4 0 1.011,8
06:04 13,0 12,0 12,7 94,0 2,3 244 - 0,4 0 1.011,7
06:03 13,0 12,0 12,7 94,0 2,4 254 - 0,4 0 1.011,7
06:02 13,0 12,0 12,7 94,0 2,3 244 - 0,4 0 1.011,7
06:01 13,0 12,0 12,7 94,0 2,1 253 - 0,4 0 1.011,7
06:00 13,0 12,1 12,7 94,0 2,0 258 - 0,4 0 1.011,7
 
05:59 13,0 12,0 12,7 94,0 2,0 243 - 0,4 0 1.011,7
05:58 13,0 12,1 12,7 94,0 2,2 257 - 0,4 0 1.011,7
05:57 13,0 12,1 12,7 94,0 2,5 244 - 0,4 0 1.011,7
05:56 13,1 12,1 12,7 94,0 2,8 267 - 0,4 0 1.011,7
05:55 13,1 12,1 12,7 94,0 2,9 257 - 0,4 0 1.011,7
05:54 13,0 12,1 12,7 94,0 2,8 271 - 0,4 0 1.011,8
05:53 13,0 12,1 12,7 94,0 2,9 261 - 0,4 0 1.011,7
05:52 13,0 12,1 12,7 94,0 3,3 257 - 0,4 0 1.011,7
05:51 13,0 12,1 12,7 94,0 3,6 251 - 0,4 0 1.011,7
05:50 13,0 12,1 12,7 94,0 3,7 261 - 0,4 0 1.011,7
05:49 13,1 12,1 12,7 94,0 3,7 268 - 0,4 0 1.011,7
05:48 13,1 12,2 12,8 94,3 3,3 264 - 0,4 0 1.011,7
05:47 13,1 12,3 12,8 95,0 2,3 257 - 0,4 0 1.011,7
05:46 13,1 12,3 12,9 95,0 1,9 190 - 0,4 0 1.011,7
05:45 13,2 12,4 12,9 95,0 2,0 248 - 0,4 0 1.011,7
05:44 13,2 12,4 12,9 95,0 2,5 244 - 0,4 0 1.011,7
05:43 13,2 12,4 12,9 95,0 2,7 253 - 0,4 0 1.011,7
05:42 13,2 12,4 12,9 95,0 2,4 253 - 0,4 0 1.011,7
05:41 13,2 12,4 12,9 95,0 2,2 242 - 0,4 0 1.011,7
05:40 13,2 12,4 12,9 95,0 2,3 242 - 0,4 0 1.011,7
05:39 13,2 12,4 12,9 95,0 2,4 269 - 0,4 0 1.011,8
05:38 13,2 12,4 12,9 95,0 2,4 263 - 0,4 0 1.011,7
05:37 13,2 12,4 12,9 95,0 2,2 251 - 0,4 0 1.011,7
05:36 13,2 12,4 12,9 95,0 2,2 247 - 0,4 0 1.011,7
05:35 13,2 12,4 12,9 95,0 2,0 252 - 0,4 0 1.011,7
05:34 13,2 12,4 12,9 95,0 1,9 262 - 0,4 0 1.011,7
05:33 13,2 12,4 12,9 95,0 1,8 255 - 0,4 0 1.011,7
05:32 13,2 12,4 12,9 95,0 1,6 255 - 0,4 0 1.011,7
05:31 13,2 12,4 12,9 95,0 1,6 251 - 0,4 0 1.011,6
05:30 13,1 12,3 12,9 95,0 1,7 255 - 0,4 0 1.011,6
05:29 13,1 12,2 12,8 94,5 1,9 247 - 0,4 0 1.011,7
05:28 13,1 12,2 12,8 94,0 1,8 249 - 0,4 0 1.011,7
05:27 13,1 12,2 12,8 94,0 1,5 282 - 0,4 0 1.011,7
05:26 13,1 12,1 12,8 94,0 1,4 250 - 0,4 0 1.011,7
05:25 13,1 12,1 12,8 94,0 1,4 242 - 0,4 0 1.011,7
05:24 13,1 12,2 12,8 94,0 1,3 225 - 0,4 0 1.011,7
05:23 13,2 12,2 12,8 94,0 1,1 230 - 0,4 0 1.011,7
05:22 13,2 12,2 12,8 94,0 1,0 187 - 0,4 0 1.011,8
05:21 13,2 12,2 12,8 94,0 0,8 187 - 0,4 0 1.011,7
05:20 13,2 12,2 12,8 94,0 0,6 186 - 0,4 0 1.011,7
05:19 13,2 12,2 12,8 94,0 0,5 186 - 0,4 0 1.011,8
05:18 13,2 12,2 12,8 94,0 0,6 186 - 0,4 0 1.011,8
05:17 13,2 12,2 12,8 94,0 0,6 186 - 0,4 0 1.011,8
05:16 13,2 12,2 12,8 94,0 0,6 186 - 0,4 0 1.011,8
05:15 13,2 12,2 12,8 94,0 0,5 186 - 0,4 0 1.011,7
05:14 13,2 12,2 12,8 94,0 0,3 185 - 0,4 0 1.011,8
05:13 13,2 12,2 12,8 94,0 0,3 186 - 0,4 0 1.011,7
05:12 13,2 12,2 12,8 94,0 0,3 185 - 0,4 0 1.011,7
05:11 13,2 12,2 12,8 94,0 0,2 198 - 0,4 0 1.011,7
05:10 13,2 12,2 12,8 94,0 0,1 157 - 0,4 0 1.011,7
05:09 13,2 12,2 12,8 94,0 0,2 156 - 0,4 0 1.011,7
05:08 13,2 12,2 12,8 94,0 0,2 157 - 0,4 0 1.011,7
05:07 13,2 12,2 12,8 94,0 0,2 157 - 0,4 0 1.011,7
05:06 13,2 12,2 12,8 94,0 0,2 157 - 0,4 0 1.011,6
05:05 13,2 12,2 12,8 94,0 0,2 156 - 0,4 0 1.011,7
05:04 13,2 12,2 12,8 94,0 0,2 155 - 0,4 0 1.011,7
05:03 13,2 12,2 12,8 94,0 0,2 155 - 0,4 0 1.011,7
05:02 13,2 12,2 12,8 94,0 0,2 172 - 0,4 0 1.011,7
05:01 13,2 12,2 12,8 94,0 0,2 180 - 0,4 0 1.011,6
05:00 13,2 12,2 12,8 94,0 0,3 180 - 0,4 0 1.011,7
 
04:59 13,1 12,2 12,8 94,0 0,3 180 - 0,4 0 1.011,7
04:58 13,2 12,2 12,8 94,0 0,6 180 - 0,4 0 1.011,6
04:57 13,1 12,2 12,8 94,0 0,8 180 - 0,4 0 1.011,7
04:56 13,2 12,2 12,8 94,0 0,9 205 - 0,4 0 1.011,7
04:55 13,2 12,2 12,8 94,0 1,0 208 - 0,4 0 1.011,6
04:54 13,2 12,2 12,8 94,0 1,2 212 - 0,4 0 1.011,6
04:53 13,2 12,2 12,8 94,0 1,3 222 - 0,4 0 1.011,6
04:52 13,2 12,2 12,8 94,0 1,4 221 - 0,4 0 1.011,7
04:51 13,2 12,2 12,8 94,0 1,5 229 - 0,4 0 1.011,6
04:50 13,2 12,2 12,8 94,0 1,6 233 - 0,4 0 1.011,7
04:49 13,2 12,2 12,9 94,0 1,7 210 - 0,4 0 1.011,6
04:48 13,2 12,2 12,9 94,0 2,0 217 - 0,4 0 1.011,7
04:47 13,2 12,2 12,9 94,0 2,0 207 - 0,4 0 1.011,7
04:46 13,2 12,2 12,9 94,0 1,9 213 - 0,4 0 1.011,7
04:45 13,2 12,3 12,9 94,0 1,6 219 - 0,4 0 1.011,7
04:44 13,2 12,3 12,9 94,0 1,7 221 - 0,4 0 1.011,6
04:43 13,2 12,3 12,9 94,0 1,7 224 - 0,4 0 1.011,7
04:42 13,3 12,3 12,9 94,0 1,6 201 - 0,4 0 1.011,6
04:41 13,3 12,3 12,9 94,0 1,5 237 - 0,4 0 1.011,7
04:40 13,3 12,3 12,9 94,0 1,8 222 - 0,4 0 1.011,7
04:39 13,3 12,3 13,0 94,0 1,9 220 - 0,4 0 1.011,6
04:38 13,3 12,3 13,0 94,0 1,9 217 - 0,4 0 1.011,7
04:37 13,3 12,3 13,0 94,0 1,9 209 - 0,4 0 1.011,7
04:36 13,3 12,4 13,0 94,0 1,9 203 - 0,4 0 1.011,6
04:35 13,3 12,4 13,0 94,0 2,0 211 - 0,4 0 1.011,6
04:34 13,4 12,4 13,0 94,0 2,1 215 - 0,4 0 1.011,6
04:33 13,4 12,4 13,0 94,0 2,4 235 - 0,4 0 1.011,6
04:32 13,4 12,4 13,1 94,0 2,5 238 - 0,4 0 1.011,6
04:31 13,4 12,4 13,1 94,0 2,1 230 - 0,4 0 1.011,6
04:30 13,4 12,4 13,1 94,0 1,8 237 - 0,4 0 1.011,6
04:29 13,4 12,4 13,1 94,0 1,9 257 - 0,4 0 1.011,6
04:28 13,4 12,4 13,1 94,0 2,2 251 - 0,4 0 1.011,6
04:27 13,4 12,4 13,1 94,0 2,4 257 - 0,4 0 1.011,6
04:26 13,3 12,4 13,0 94,0 2,5 257 - 0,4 0 1.011,6
04:25 13,4 12,4 13,0 94,0 2,4 242 - 0,4 0 1.011,6
04:24 13,4 12,4 13,0 94,0 2,1 221 - 0,4 0 1.011,6
04:23 13,4 12,4 13,1 94,0 1,8 235 - 0,4 0 1.011,6
04:22 13,4 12,4 13,1 94,0 1,7 238 - 0,4 0 1.011,6
04:21 13,4 12,4 13,1 94,0 1,7 238 - 0,4 0 1.011,6
04:20 13,4 12,4 13,1 94,0 1,6 213 - 0,4 0 1.011,6
04:19 13,4 12,4 13,1 94,0 1,5 226 - 0,4 0 1.011,6
04:18 13,4 12,4 13,1 94,0 1,6 234 - 0,4 0 1.011,6
04:17 13,4 12,5 13,1 94,0 1,7 222 - 0,4 0 1.011,6
04:16 13,4 12,5 13,1 94,0 1,7 225 - 0,4 0 1.011,6
04:15 13,4 12,5 13,1 94,0 1,7 224 - 0,4 0 1.011,6
04:14 13,4 12,5 13,1 94,0 1,8 219 - 0,4 0 1.011,6
04:13 13,4 12,4 13,1 94,0 1,8 204 - 0,4 0 1.011,6
04:12 13,4 12,5 13,1 94,0 1,8 225 - 0,4 0 1.011,6
04:11 13,4 12,5 13,1 94,0 1,8 222 - 0,4 0 1.011,6
04:10 13,4 12,5 13,1 94,0 1,8 226 - 0,4 0 1.011,6
04:09 13,4 12,5 13,1 94,0 1,8 220 - 0,4 0 1.011,6
04:08 13,4 12,5 13,1 94,0 1,6 222 - 0,4 0 1.011,6
04:07 13,5 12,5 13,2 94,0 1,6 224 - 0,4 0 1.011,6
04:06 13,5 12,5 13,1 94,0 1,7 214 - 0,4 0 1.011,6
04:05 13,5 12,5 13,2 94,0 1,7 207 - 0,4 0 1.011,6
04:04 13,5 12,5 13,2 94,0 1,6 207 - 0,4 0 1.011,6
04:03 13,5 12,5 13,2 94,0 1,5 204 - 0,4 0 1.011,6
04:02 13,5 12,5 13,2 94,0 1,4 197 - 0,4 0 1.011,6
04:01 13,6 12,6 13,2 94,0 1,2 189 - 0,4 0 1.011,6
04:00 13,6 12,6 13,2 94,0 1,0 195 - 0,4 0 1.011,6
 
03:59 13,6 12,6 13,2 94,0 1,0 195 - 0,4 0 1.011,7
03:58 13,6 12,6 13,2 94,0 1,2 195 - 0,4 0 1.011,6
03:57 13,6 12,6 13,2 94,0 1,3 216 - 0,4 0 1.011,6
03:56 13,6 12,6 13,2 94,0 1,3 202 - 0,4 0 1.011,6
03:55 13,6 12,6 13,3 94,0 1,2 217 - 0,4 0 1.011,6
03:54 13,6 12,6 13,3 94,0 1,2 217 - 0,4 0 1.011,6
03:53 13,6 12,6 13,3 94,0 1,3 233 - 0,4 0 1.011,6
03:52 13,6 12,6 13,3 94,0 1,4 224 - 0,4 0 1.011,6
03:51 13,6 12,6 13,3 94,0 1,5 230 - 0,4 0 1.011,6
03:50 13,6 12,6 13,3 94,0 1,4 228 - 0,4 0 1.011,6
03:49 13,6 12,6 13,3 94,0 1,4 227 - 0,4 0 1.011,6
03:48 13,6 12,6 13,3 94,0 1,5 233 - 0,4 0 1.011,6
03:47 13,6 12,7 13,3 94,0 1,7 217 - 0,4 0 1.011,6
03:46 13,6 12,6 13,3 94,0 1,8 233 - 0,4 0 1.011,6
03:45 13,6 12,6 13,3 94,0 1,8 240 - 0,4 0 1.011,6
03:44 13,6 12,7 13,3 94,0 2,1 250 - 0,4 0 1.011,6
03:43 13,7 12,7 13,3 94,0 2,3 242 - 0,4 0 1.011,6
03:42 13,7 12,7 13,3 94,0 2,4 251 - 0,4 0 1.011,6
03:41 13,7 12,7 13,3 94,0 2,4 232 - 0,4 0 1.011,6
03:40 13,7 12,7 13,3 94,0 2,6 224 - 0,4 0 1.011,6
03:39 13,7 12,7 13,3 94,0 2,9 243 - 0,4 0 1.011,6
03:38 13,7 12,7 13,3 94,0 3,3 244 - 0,4 0 1.011,6
03:37 13,7 12,7 13,4 94,0 3,3 247 - 0,4 0 1.011,6
03:36 13,7 12,7 13,4 94,0 3,1 231 - 0,4 0 1.011,6
03:35 13,7 12,8 13,4 94,0 2,8 244 - 0,4 0 1.011,5
03:34 13,7 12,8 13,4 94,0 2,6 249 - 0,4 0 1.011,5
03:33 13,7 12,8 13,4 94,0 2,5 219 - 0,4 0 1.011,5
03:32 13,7 12,8 13,4 94,0 2,6 232 - 0,4 0 1.011,5
03:31 13,7 12,8 13,4 94,0 2,8 238 - 0,4 0 1.011,5
03:30 13,7 12,8 13,4 94,0 3,1 251 - 0,4 0 1.011,5
03:29 13,7 12,7 13,4 94,0 3,2 273 - 0,4 0 1.011,5
03:28 13,7 12,8 13,4 94,0 2,9 238 - 0,4 0 1.011,5
03:27 13,7 12,8 13,4 94,0 2,6 244 - 0,4 0 1.011,5
03:26 13,7 12,8 13,4 94,0 2,4 228 - 0,4 0 1.011,5
03:25 13,7 12,8 13,4 94,0 2,3 240 - 0,4 0 1.011,5
03:24 13,8 12,8 13,4 94,0 2,2 220 - 0,4 0 1.011,6
03:23 13,8 12,8 13,5 94,0 2,3 243 - 0,4 0 1.011,6
03:22 13,8 12,8 13,5 94,0 2,6 250 - 0,4 0 1.011,6
03:21 13,8 12,8 13,5 94,0 2,7 220 - 0,4 0 1.011,6
03:20 13,8 12,8 13,5 94,0 2,6 232 - 0,4 0 1.011,6
03:19 13,8 12,8 13,5 94,0 2,5 239 - 0,4 0 1.011,6
03:18 13,8 12,8 13,5 94,0 2,5 238 - 0,4 0 1.011,6
03:17 13,8 12,8 13,5 94,0 2,6 219 - 0,4 0 1.011,6
03:16 13,8 12,8 13,5 94,0 2,5 217 - 0,4 0 1.011,6
03:15 13,8 12,8 13,5 94,0 2,4 217 - 0,4 0 1.011,6
03:14 13,8 12,8 13,5 94,0 2,3 238 - 0,4 0 1.011,6
03:13 13,8 12,8 13,5 94,0 2,2 236 - 0,4 0 1.011,6
03:12 13,8 12,8 13,5 94,0 2,0 245 - 0,4 0 1.011,6
03:11 13,8 12,8 13,5 94,0 2,1 238 - 0,4 0 1.011,6
03:10 13,8 12,8 13,5 94,0 2,0 238 - 0,4 0 1.011,6
03:09 13,8 12,8 13,4 94,0 1,9 222 - 0,4 0 1.011,6
03:08 13,8 12,8 13,4 94,0 1,7 208 - 0,4 0 1.011,6
03:07 13,8 12,8 13,5 94,0 1,6 223 - 0,4 0 1.011,6
03:06 13,8 12,8 13,4 94,0 1,6 227 - 0,4 0 1.011,6
03:05 13,8 12,8 13,4 94,0 1,7 217 - 0,4 0 1.011,5
03:04 13,8 12,8 13,5 94,0 1,9 229 - 0,4 0 1.011,6
03:03 13,8 12,8 13,5 94,0 1,9 242 - 0,4 0 1.011,6
03:02 13,8 12,8 13,5 94,0 1,8 230 - 0,4 0 1.011,6
03:01 13,8 12,8 13,5 94,0 1,8 206 - 0,4 0 1.011,6
03:00 13,8 12,8 13,5 94,0 1,9 223 - 0,4 0 1.011,5
 
02:59 13,8 12,8 13,5 94,0 1,8 213 - 0,4 0 1.011,5
02:58 13,8 12,8 13,5 94,0 1,6 211 - 0,4 0 1.011,5
02:57 13,8 12,8 13,5 94,0 1,5 215 - 0,4 0 1.011,5
02:56 13,8 12,8 13,5 94,0 1,6 214 - 0,4 0 1.011,5
02:55 13,8 12,9 13,5 94,0 1,9 217 - 0,4 0 1.011,5
02:54 13,8 12,8 13,5 94,0 2,0 205 - 0,4 0 1.011,5
02:53 13,8 12,9 13,5 94,0 1,8 209 - 0,4 0 1.011,6
02:52 13,8 12,9 13,5 94,0 1,6 205 - 0,4 0 1.011,6
02:51 13,8 12,9 13,5 94,0 1,5 176 - 0,4 0 1.011,5
02:50 13,8 12,8 13,5 94,0 1,7 207 - 0,4 0 1.011,5
02:49 13,8 12,9 13,5 94,0 2,1 225 - 0,4 0 1.011,5
02:48 13,8 12,9 13,5 94,0 2,3 228 - 0,4 0 1.011,4
02:47 13,8 12,9 13,5 94,0 2,2 251 - 0,4 0 1.011,5
02:46 13,8 12,9 13,5 94,0 2,1 213 - 0,4 0 1.011,5
02:45 13,8 12,9 13,5 94,0 2,3 226 - 0,4 0 1.011,5
02:44 13,8 12,9 13,5 94,0 2,3 234 - 0,4 0 1.011,5
02:43 13,8 12,9 13,5 94,0 2,3 224 - 0,4 0 1.011,5
02:42 13,9 12,9 13,5 94,0 2,3 226 - 0,4 0 1.011,5
02:41 13,9 12,9 13,6 94,0 2,2 235 - 0,4 0 1.011,5
02:40 13,9 12,9 13,6 94,0 1,9 230 - 0,4 0 1.011,4
02:39 13,9 12,9 13,6 94,0 1,7 236 - 0,4 0 1.011,4
02:38 13,9 12,9 13,6 94,0 1,9 225 - 0,4 0 1.011,4
02:37 13,9 12,9 13,6 94,0 2,1 237 - 0,4 0 1.011,5
02:36 13,9 12,9 13,6 94,0 2,4 213 - 0,4 0 1.011,5
02:35 13,9 12,9 13,6 94,0 2,8 245 - 0,4 0 1.011,5
02:34 13,9 12,9 13,5 94,0 3,2 233 - 0,4 0 1.011,5
02:33 13,9 12,9 13,5 94,0 3,4 251 - 0,4 0 1.011,6
02:32 13,9 12,9 13,5 94,0 3,6 244 - 0,4 0 1.011,5
02:31 13,9 12,9 13,5 94,0 3,8 233 - 0,4 0 1.011,5
02:30 13,8 12,9 13,5 94,0 3,9 262 - 0,4 0 1.011,6
02:29 13,8 12,9 13,5 94,0 4,0 237 - 0,4 0 1.011,5
02:28 13,9 12,9 13,5 94,0 4,1 239 - 0,4 0 1.011,5
02:27 13,8 12,9 13,5 94,0 4,0 244 - 0,4 0 1.011,6
02:26 13,8 12,9 13,5 94,0 3,7 242 - 0,4 0 1.011,6
02:25 13,8 12,9 13,5 94,0 3,3 231 - 0,4 0 1.011,5
02:24 13,9 12,9 13,5 94,0 2,8 249 - 0,4 0 1.011,6
02:23 13,9 12,9 13,5 94,0 2,7 232 - 0,4 0 1.011,6
02:22 13,9 12,9 13,6 94,0 2,6 240 - 0,4 0 1.011,6
02:21 13,9 12,9 13,6 94,0 2,5 232 - 0,4 0 1.011,6
02:20 13,9 13,0 13,6 94,0 2,3 221 - 0,4 0 1.011,5
02:19 13,9 13,0 13,6 94,0 2,0 219 - 0,4 0 1.011,5
02:18 13,9 13,0 13,6 94,0 1,7 219 - 0,4 0 1.011,5
02:17 13,9 13,0 13,6 94,0 1,6 236 - 0,4 0 1.011,5
02:16 14,0 13,0 13,6 94,0 1,6 239 - 0,4 0 1.011,5
02:15 13,9 13,0 13,6 94,0 1,7 227 - 0,4 0 1.011,5
02:14 14,0 13,0 13,6 94,0 1,8 223 - 0,4 0 1.011,5
02:13 14,0 13,0 13,7 94,0 2,0 223 - 0,4 0 1.011,5
02:12 14,0 13,0 13,7 94,0 2,1 224 - 0,4 0 1.011,5
02:11 14,0 13,0 13,7 94,0 2,0 226 - 0,4 0 1.011,6
02:10 14,0 13,1 13,7 94,0 1,9 240 - 0,4 0 1.011,6
02:09 14,0 13,1 13,7 94,0 1,9 217 - 0,4 0 1.011,6
02:08 14,0 13,0 13,7 94,0 1,8 240 - 0,4 0 1.011,6
02:07 14,1 13,1 13,7 94,0 1,9 219 - 0,4 0 1.011,6
02:06 14,1 13,1 13,7 94,0 1,9 226 - 0,4 0 1.011,6
02:05 14,1 13,1 13,7 94,0 1,8 226 - 0,4 0 1.011,6
02:04 14,1 13,1 13,8 94,0 1,7 231 - 0,4 0 1.011,6
02:03 14,1 13,1 13,8 94,0 1,8 232 - 0,4 0 1.011,6
02:02 14,1 13,1 13,8 94,0 2,1 226 - 0,4 0 1.011,6
02:01 14,1 13,1 13,8 94,0 2,4 226 - 0,4 0 1.011,6
02:00 14,1 13,1 13,8 94,0 2,5 248 - 0,4 0 1.011,6
 
01:59 14,1 13,1 13,8 94,0 2,5 214 - 0,4 0 1.011,6
01:58 14,1 13,1 13,8 94,0 2,7 234 - 0,4 0 1.011,6
01:57 14,1 13,1 13,8 94,0 3,0 247 - 0,4 0 1.011,6
01:56 14,1 13,1 13,8 94,0 3,2 211 - 0,4 0 1.011,6
01:55 14,1 13,1 13,8 94,0 3,2 221 - 0,4 0 1.011,6
01:54 14,1 13,1 13,8 94,0 3,2 255 - 0,4 0 1.011,6
01:53 14,1 13,1 13,8 94,0 3,4 247 - 0,4 0 1.011,6
01:52 14,1 13,1 13,8 94,0 3,5 236 - 0,4 0 1.011,6
01:51 14,1 13,1 13,8 94,0 3,7 259 - 0,4 0 1.011,6
01:50 14,1 13,1 13,8 94,0 3,8 247 - 0,4 0 1.011,6
01:49 14,1 13,1 13,8 94,0 3,8 236 - 0,4 0 1.011,6
01:48 14,1 13,1 13,8 94,0 3,5 243 - 0,4 0 1.011,7
01:47 14,1 13,1 13,8 94,0 3,6 260 - 0,4 0 1.011,6
01:46 14,1 13,2 13,8 94,0 3,7 244 - 0,4 0 1.011,6
01:45 14,1 13,1 13,8 94,0 4,0 217 - 0,4 0 1.011,6
01:44 14,1 13,1 13,8 94,0 4,1 247 - 0,4 0 1.011,5
01:43 14,1 13,1 13,8 94,0 4,3 230 - 0,4 0 1.011,5
01:42 14,1 13,1 13,8 94,0 4,3 238 - 0,4 0 1.011,5
01:41 14,1 13,1 13,8 94,0 4,3 233 - 0,4 0 1.011,5
01:40 14,1 13,1 13,8 94,0 4,3 238 - 0,4 0 1.011,5
01:39 14,1 13,1 13,8 94,0 4,2 256 - 0,4 0 1.011,5
01:38 14,1 13,1 13,8 94,0 4,3 246 - 0,4 0 1.011,5
01:37 14,2 13,2 13,8 94,0 4,5 232 - 0,4 0 1.011,5
01:36 14,2 13,2 13,8 93,7 4,7 237 - 0,4 0 1.011,5
01:35 14,2 13,1 13,8 93,5 4,6 242 - 0,4 0 1.011,5
01:34 14,2 13,1 13,8 93,4 4,0 247 - 0,4 0 1.011,5
01:33 14,2 13,1 13,8 93,0 3,5 257 - 0,4 0 1.011,5
01:32 14,2 13,1 13,8 93,0 3,4 257 - 0,4 0 1.011,5
01:31 14,2 13,1 13,8 93,0 3,4 242 - 0,4 0 1.011,5
01:30 14,2 13,1 13,9 93,0 3,4 242 - 0,4 0 1.011,5
01:29 14,2 13,1 13,8 93,0 3,3 239 - 0,4 0 1.011,5
01:28 14,2 13,1 13,9 93,0 3,2 247 - 0,4 0 1.011,5
01:27 14,2 13,1 13,9 93,0 3,1 242 - 0,4 0 1.011,5
01:26 14,2 13,1 13,8 93,0 3,0 251 - 0,4 0 1.011,5
01:25 14,2 13,1 13,9 93,0 2,9 247 - 0,4 0 1.011,5
01:24 14,3 13,1 13,9 93,0 3,0 238 - 0,4 0 1.011,5
01:23 14,3 13,1 13,9 93,0 2,7 242 - 0,4 0 1.011,6
01:22 14,3 13,1 13,9 93,0 2,2 222 - 0,4 0 1.011,5
01:21 14,3 13,1 13,9 93,0 1,7 236 - 0,4 0 1.011,5
01:20 14,2 13,1 13,9 93,0 1,6 201 - 0,4 0 1.011,5
01:19 14,2 13,1 13,9 93,0 1,6 203 - 0,4 0 1.011,5
01:18 14,2 13,1 13,8 93,0 1,5 180 - 0,4 0 1.011,5
01:17 14,2 13,1 13,8 93,0 1,5 199 - 0,4 0 1.011,5
01:16 14,2 13,1 13,8 93,0 1,4 208 - 0,4 0 1.011,4
01:15 14,2 13,1 13,8 93,0 1,3 207 - 0,4 0 1.011,4
01:14 14,2 13,1 13,8 93,0 1,3 207 - 0,4 0 1.011,4
01:13 14,2 13,1 13,8 93,0 1,4 211 - 0,4 0 1.011,5
01:12 14,2 13,0 13,8 93,0 1,6 211 - 0,4 0 1.011,5
01:11 14,2 13,0 13,8 93,0 1,6 225 - 0,4 0 1.011,5
01:10 14,2 13,0 13,8 93,0 1,6 210 - 0,4 0 1.011,4
01:09 14,2 13,0 13,8 93,0 1,7 220 - 0,4 0 1.011,4
01:08 14,2 13,0 13,8 93,0 1,8 220 - 0,4 0 1.011,4
01:07 14,2 13,0 13,8 93,0 1,9 220 - 0,4 0 1.011,4
01:06 14,2 13,0 13,8 93,0 1,9 225 - 0,4 0 1.011,4
01:05 14,2 13,0 13,8 93,0 1,8 240 - 0,4 0 1.011,4
01:04 14,2 13,0 13,8 93,0 1,8 230 - 0,4 0 1.011,4
01:03 14,2 13,0 13,8 93,0 1,9 229 - 0,4 0 1.011,4
01:02 14,2 13,0 13,8 93,0 1,8 232 - 0,4 0 1.011,4
01:01 14,2 13,0 13,8 93,0 1,6 230 - 0,4 0 1.011,4
01:00 14,2 13,0 13,8 93,0 1,5 232 - 0,4 0 1.011,4
 
00:59 14,2 13,0 13,8 93,0 2,0 240 - 0,4 0 1.011,4
00:58 14,2 13,0 13,8 93,0 2,3 236 - 0,4 0 1.011,4
00:57 14,2 13,1 13,8 93,0 2,6 234 - 0,4 0 1.011,3
00:56 14,2 13,1 13,8 93,0 2,5 248 - 0,4 0 1.011,4
00:55 14,2 13,1 13,8 93,0 2,5 260 - 0,4 0 1.011,4
00:54 14,2 13,1 13,8 93,0 2,5 247 - 0,4 0 1.011,4
00:53 14,2 13,1 13,8 93,0 2,6 245 - 0,4 0 1.011,4
00:52 14,2 13,1 13,8 93,0 2,7 257 - 0,4 0 1.011,4
00:51 14,2 13,1 13,8 93,1 2,7 257 - 0,4 0 1.011,4
00:50 14,2 13,2 13,9 94,0 2,7 251 - 0,4 0 1.011,4
00:49 14,2 13,1 13,8 93,7 2,7 252 - 0,4 0 1.011,4
00:48 14,2 13,1 13,8 93,5 2,8 258 - 0,4 0 1.011,4
00:47 14,2 13,2 13,8 94,0 2,9 260 - 0,4 0 1.011,4
00:46 14,2 13,2 13,8 94,0 3,0 266 - 0,4 0 1.011,4
00:45 14,2 13,2 13,8 94,0 3,1 259 - 0,4 0 1.011,4
00:44 14,2 13,2 13,8 94,0 3,1 255 - 0,4 0 1.011,4
00:43 14,2 13,2 13,8 94,0 3,0 251 - 0,4 0 1.011,4
00:42 14,2 13,2 13,8 94,0 2,9 251 - 0,4 0 1.011,3
00:41 14,2 13,2 13,8 94,0 3,0 240 - 0,4 0 1.011,4
00:40 14,2 13,2 13,8 94,0 3,3 249 - 0,4 0 1.011,4
00:39 14,2 13,2 13,8 94,0 3,4 259 - 0,4 0 1.011,3
00:38 14,2 13,2 13,9 94,0 3,4 247 - 0,4 0 1.011,3
00:37 14,2 13,2 13,8 94,0 3,4 262 - 0,4 0 1.011,3
00:36 14,2 13,2 13,8 94,0 3,5 276 - 0,4 0 1.011,3
00:35 14,2 13,2 13,8 94,0 3,6 276 - 0,4 0 1.011,2
00:34 14,2 13,2 13,9 94,0 3,7 278 - 0,2 0 1.011,2
00:33 14,2 13,2 13,9 94,0 3,4 275 - 0,2 0 1.011,3
00:32 14,2 13,2 13,9 94,0 2,8 280 - 0,2 0 1.011,3
00:31 14,2 13,1 13,8 93,6 2,4 282 - 0,2 0 1.011,3
00:30 14,2 13,1 13,8 93,0 2,3 288 - 0,2 0 1.011,3
00:29 14,2 13,1 13,8 93,0 2,4 284 - 0,2 0 1.011,3
00:28 14,2 13,1 13,9 93,0 2,4 287 - 0,2 0 1.011,3
00:27 14,3 13,1 13,9 93,0 2,3 292 - 0,2 0 1.011,2
00:26 14,3 13,1 13,9 93,0 2,2 292 - 0,2 0 1.011,2
00:25 14,3 13,2 13,9 93,0 2,1 292 - 0,2 0 1.011,3
00:24 14,3 13,2 13,9 93,0 2,0 293 - 0,2 0 1.011,3
00:23 14,3 13,2 13,9 93,0 2,0 293 - 0,2 0 1.011,2
00:22 14,3 13,2 13,9 93,0 2,2 285 - 0,2 0 1.011,3
00:21 14,3 13,2 13,9 93,0 2,2 284 - 0,2 0 1.011,3
00:20 14,3 13,2 14,0 93,3 2,2 282 - 0,2 0 1.011,3
00:19 14,4 13,3 14,0 93,6 2,1 293 - 0,2 0 1.011,2
00:18 14,4 13,4 14,0 93,6 2,0 293 - 0,2 0 1.011,2
00:17 14,4 13,3 14,0 93,3 1,9 293 - 0,2 0 1.011,2
00:16 14,4 13,3 14,1 93,0 1,9 293 - 0,2 0 1.011,2
00:15 14,4 13,3 14,1 93,0 1,9 293 - 0,2 0 1.011,2
00:14 14,5 13,4 14,1 93,0 2,0 293 - 0,2 0 1.011,2
00:13 14,5 13,4 14,2 93,0 2,0 293 - 0,2 0 1.011,2
00:12 14,6 13,4 14,2 93,0 2,1 293 - 0,2 0 1.011,2
00:11 14,6 13,5 14,2 93,0 2,1 293 - 0,2 0 1.011,2
00:10 14,6 13,5 14,2 93,0 2,2 288 - 0,2 0 1.011,2
00:09 14,6 13,5 14,2 93,0 2,8 286 - 0,2 0 1.011,2
00:08 14,6 13,5 14,2 93,4 3,4 282 - 0,0 0 1.011,2
00:07 14,6 13,5 14,2 93,6 3,6 275 - 0,0 0 1.011,1
00:06 14,6 13,4 14,2 93,0 3,4 277 - 0,0 0 1.011,2
00:05 14,6 13,4 14,2 93,0 3,2 273 - 0,0 0 1.011,2
00:04 14,6 13,4 14,2 93,0 3,1 274 - 0,0 0 1.011,2
00:03 14,5 13,4 14,2 93,0 3,1 269 - 0,0 0 1.011,1
00:02 14,5 13,4 14,1 93,0 3,3 270 - 0,0 0 1.011,1
00:01 14,5 13,3 14,1 93,0 3,5 271 - 0,0 0 1.011,1
00:00 14,5 13,3 14,1 93,0 3,8 269 - 8,2 0 1.011,1
 
23:59 14,5 13,4 14,1 93,0 3,9 274 - 8,2 0 1.011,1
23:58 14,5 13,4 14,1 93,0 3,7 271 - 8,2 0 1.011,1
23:57 14,5 13,4 14,1 93,0 3,6 257 - 8,2 0 1.011,1
23:56 14,5 13,4 14,1 93,0 3,7 259 - 8,2 0 1.011,1
23:55 14,5 13,4 14,1 93,0 4,0 264 - 8,2 0 1.011,1
23:54 14,5 13,4 14,1 93,0 4,0 262 - 8,0 0 1.011,1
23:53 14,6 13,4 14,2 93,0 4,1 245 - 8,0 0 1.011,1
23:52 14,6 13,5 14,2 93,0 4,2 249 - 8,0 0 1.011,1
23:51 14,7 13,5 14,3 93,0 4,1 230 - 8,0 0 1.011,0
23:50 14,7 13,6 14,4 93,0 3,6 268 - 8,0 0 1.011,1
23:49 14,8 13,6 14,4 93,0 3,5 199 - 8,0 0 1.011,0
23:48 14,8 13,7 14,5 93,0 3,8 257 - 8,0 0 1.011,0
23:47 14,9 13,8 14,5 93,0 4,1 269 - 8,0 0 1.011,1
23:46 14,9 13,8 14,5 93,0 3,8 251 - 8,0 0 1.011,0
23:45 14,9 13,8 14,6 93,0 3,5 263 - 8,0 0 1.011,0
23:44 14,9 13,8 14,6 93,0 3,4 234 - 7,8 0 1.011,1
23:43 14,9 13,8 14,6 93,0 3,3 256 - 7,4 0 1.011,1
23:42 14,9 13,8 14,6 93,0 3,0 232 - 7,4 0 1.011,1
23:41 14,9 13,8 14,6 93,0 2,7 229 - 7,4 0 1.011,1
23:40 14,9 13,8 14,6 93,0 2,5 238 - 7,4 0 1.011,1
23:39 14,9 13,8 14,6 93,0 2,5 202 - 7,4 0 1.011,1
23:38 15,0 13,8 14,6 93,0 2,7 216 - 7,4 0 1.011,1
23:37 15,0 13,8 14,6 93,0 2,6 199 - 7,4 0 1.011,0
23:36 15,0 13,8 14,6 93,0 2,4 232 - 7,4 0 1.010,9
23:35 15,0 13,8 14,6 93,0 2,2 204 - 7,4 0 1.011,0
23:34 15,0 13,8 14,6 93,0 2,4 211 - 7,4 0 1.011,0
23:33 15,0 13,8 14,6 93,0 2,8 234 - 7,4 0 1.011,0
23:32 15,0 13,8 14,6 93,0 2,8 219 - 7,4 0 1.011,0
23:31 15,0 13,8 14,6 93,0 2,7 219 - 7,4 0 1.011,0
23:30 15,0 13,8 14,6 93,0 2,5 233 - 7,2 0 1.011,0
23:29 15,0 13,9 14,6 93,0 2,4 207 - 7,2 0 1.011,0
23:28 15,0 13,9 14,6 93,0 2,3 228 - 7,2 0 1.011,0
23:27 15,0 13,9 14,6 93,0 2,6 234 - 7,2 0 1.011,0
23:26 15,1 13,9 14,7 93,0 3,0 226 - 7,2 0 1.011,0
23:25 15,0 13,9 14,7 93,0 2,8 249 - 7,2 0 1.011,0
23:24 15,1 13,9 14,7 93,0 2,2 210 - 7,2 0 1.011,0
23:23 15,1 13,9 14,7 93,0 2,0 222 - 7,2 0 1.011,0
23:22 15,1 13,9 14,7 93,0 1,9 218 - 7,2 0 1.011,0
23:21 15,1 13,9 14,7 93,0 1,8 208 - 7,0 0 1.011,0
23:20 15,1 13,9 14,7 93,0 1,5 206 - 7,0 0 1.011,0
23:19 15,1 13,8 14,6 92,4 1,2 192 - 7,0 0 1.011,0
23:18 15,1 13,7 14,6 92,0 1,0 240 - 7,0 0 1.011,0
23:17 15,1 13,8 14,6 92,1 1,2 155 - 7,0 0 1.011,0
23:16 15,1 13,9 14,7 92,8 1,4 215 - 7,0 0 1.011,0
23:15 15,1 13,8 14,6 92,0 1,8 229 - 7,0 0 1.011,0
23:14 15,1 13,8 14,6 92,0 2,0 212 - 7,0 0 1.011,0
23:13 15,1 13,8 14,7 92,0 2,1 211 - 7,0 0 1.011,0
23:12 15,1 13,8 14,7 92,0 2,1 234 - 7,0 0 1.011,0
23:11 15,1 13,8 14,7 92,0 1,7 207 - 7,0 0 1.011,0
23:10 15,1 13,8 14,7 92,0 1,7 150 - 7,0 0 1.011,0
23:09 15,1 13,8 14,7 92,0 1,8 192 - 7,0 0 1.011,0
23:08 15,1 13,8 14,7 92,0 2,0 201 - 7,0 0 1.011,0
23:07 15,1 13,8 14,6 92,0 2,1 188 - 6,8 0 1.011,0
23:06 15,1 13,7 14,6 92,0 1,9 192 - 6,8 0 1.011,0
23:05 15,1 13,8 14,6 92,0 1,5 190 - 6,6 0 1.011,0
23:04 15,1 13,7 14,6 92,0 1,3 199 - 6,6 0 1.011,0
23:03 15,1 13,7 14,6 92,0 1,2 201 - 6,4 0 1.011,0
23:02 15,0 13,7 14,6 92,0 1,3 199 - 6,2 0 1.011,0
23:01 15,0 13,7 14,6 92,0 1,3 207 - 6,2 0 1.011,0
23:00 15,0 13,7 15,0 92,0 1,1 213 - 6,2 0 1.010,9
 
22:59 15,0 13,7 15,0 92,0 0,9 176 - 6,2 0 1.010,9
22:58 15,0 13,7 14,5 92,0 1,0 178 - 6,2 0 1.010,9
22:57 15,0 13,6 15,0 92,0 1,3 186 - 6,2 0 1.011,0
22:56 14,9 13,6 14,9 92,0 1,4 193 - 6,2 0 1.010,9
22:55 14,9 13,6 14,9 92,0 1,1 205 - 6,2 0 1.010,9
22:54 14,9 13,6 14,9 92,0 0,9 192 - 6,0 0 1.010,9
22:53 14,9 13,6 14,9 92,0 0,8 237 - 6,0 0 1.010,9
22:52 14,9 13,6 14,9 92,0 0,9 154 - 6,0 0 1.010,9
22:51 14,9 13,6 14,9 92,0 1,0 194 - 5,8 0 1.010,9
22:50 14,9 13,6 14,9 92,0 0,9 193 - 5,4 0 1.011,0
22:49 14,9 13,6 14,9 92,0 0,7 211 - 5,2 0 1.011,0
22:48 14,9 13,6 14,9 92,0 0,6 197 - 5,0 0 1.011,0
22:47 14,9 13,6 14,9 92,0 0,7 197 - 5,0 0 1.011,0
22:46 14,9 13,5 14,9 92,0 0,9 199 - 5,0 0 1.011,0
22:45 14,8 13,5 14,8 92,0 1,0 195 - 5,0 0 1.011,0
22:44 14,8 13,5 14,8 92,0 0,9 197 - 5,0 0 1.011,0
22:43 14,8 13,5 14,8 92,0 0,9 197 - 5,0 0 1.011,0
22:42 14,8 13,5 14,8 92,0 0,9 197 - 5,0 0 1.011,0
22:41 14,8 13,5 14,8 92,0 1,0 198 - 5,0 0 1.011,0
22:40 14,8 13,5 14,8 92,0 0,9 199 - 5,0 0 1.010,9
22:39 14,8 13,5 14,8 92,0 0,8 199 - 5,0 0 1.010,9
22:38 14,8 13,5 14,8 92,0 0,8 203 - 5,0 0 1.010,9
22:37 14,8 13,5 14,8 92,0 0,8 212 - 5,0 0 1.010,9
22:36 14,8 13,5 14,8 92,0 0,7 176 - 5,0 0 1.010,9
22:35 14,8 13,5 14,8 92,0 0,7 176 - 5,0 0 1.010,9
22:34 14,8 13,5 14,8 92,0 0,5 176 - 5,0 0 1.010,9
22:33 14,8 13,5 14,8 92,0 0,2 125 - 5,0 0 1.010,9
22:32 14,8 13,5 14,8 92,0 0,2 125 - 5,0 0 1.010,9
22:31 14,8 13,5 14,8 92,0 0,3 120 - 5,0 0 1.010,9
22:30 14,8 13,5 14,8 92,0 0,3 109 - 5,0 0 1.010,9
22:29 14,8 13,5 14,8 92,0 0,4 128 - 5,0 0 1.010,9
22:28 14,8 13,5 14,8 92,0 0,3 124 - 5,0 0 1.010,9
22:27 14,8 13,5 14,8 92,0 0,3 147 - 5,0 0 1.010,9
22:26 14,8 13,5 14,8 92,0 0,3 147 - 5,0 0 1.010,9
22:25 14,8 13,5 14,8 92,0 0,3 156 - 5,0 0 1.010,9
22:24 14,8 13,5 14,8 92,0 0,1 156 - 5,0 0 1.010,9
22:23 14,8 13,5 14,8 92,0 0,0 156 - 5,0 0 1.010,9
22:22 14,8 13,5 14,8 92,0 0,0 156 - 5,0 0 1.010,9
22:21 14,8 13,5 14,8 92,0 0,0 156 - 5,0 0 1.010,9
22:20 14,8 13,5 14,8 92,0 0,1 156 - 5,0 0 1.010,9
22:19 14,8 13,5 14,8 92,0 0,1 156 - 5,0 0 1.010,9
22:18 14,8 13,5 14,8 92,0 0,1 156 - 5,0 0 1.010,9
22:17 14,8 13,5 14,8 92,0 0,1 156 - 5,0 0 1.010,9
22:16 14,8 13,5 14,8 92,0 0,1 156 - 5,0 0 1.010,9
22:15 14,8 13,5 14,8 92,0 0,0 156 - 5,0 0 1.010,9
22:14 14,8 13,5 14,8 92,0 0,0 156 - 5,0 0 1.010,9
22:13 14,8 13,5 14,8 92,0 0,1 157 - 5,0 0 1.010,9
22:12 14,8 13,5 14,8 92,0 0,1 157 - 5,0 0 1.010,9
22:11 14,8 13,5 14,8 92,0 0,1 157 - 5,0 0 1.010,8
22:10 14,8 13,5 14,8 92,0 0,1 157 - 5,0 0 1.010,8
22:09 14,8 13,5 14,8 92,0 0,1 157 - 5,0 0 1.010,8
22:08 14,8 13,5 14,8 92,0 0,1 157 - 5,0 0 1.010,8
22:07 14,8 13,5 14,8 92,0 0,1 157 - 5,0 0 1.010,8
22:06 14,8 13,5 14,8 92,0 0,2 157 - 5,0 0 1.010,8
22:05 14,8 13,5 14,8 92,0 0,3 157 - 5,0 0 1.010,7
22:04 14,8 13,5 14,8 92,0 0,2 156 - 5,0 0 1.010,7
22:03 14,8 13,5 14,8 92,0 0,0 156 - 5,0 0 1.010,8
22:02 14,8 13,5 14,8 92,0 0,1 155 - 5,0 0 1.010,8
22:01 14,8 13,5 14,8 92,0 0,1 155 - 5,0 0 1.010,8
22:00 14,8 13,5 14,8 92,0 0,1 156 - 5,0 0 1.010,8
 
21:59 14,8 13,5 14,8 92,0 0,0 156 - 5,0 0 1.010,8
21:58 14,8 13,5 14,8 92,0 0,0 156 - 5,0 0 1.010,8
21:57 14,8 13,5 14,8 92,0 0,1 156 - 5,0 0 1.010,7
21:56 14,8 13,5 14,8 92,0 0,1 156 - 5,0 0 1.010,7
21:55 14,8 13,5 14,8 92,0 0,1 155 - 5,0 0 1.010,6
21:54 14,8 13,5 14,8 92,0 0,2 156 - 5,0 0 1.010,6
21:53 14,8 13,5 14,8 92,0 0,3 150 - 5,0 0 1.010,7
21:52 14,8 13,5 14,8 92,0 0,2 151 - 5,0 0 1.010,7
21:51 14,8 13,5 14,8 92,0 0,2 199 - 5,0 0 1.010,7
21:50 14,8 13,5 14,8 92,0 0,2 203 - 5,0 0 1.010,7
21:49 14,8 13,5 14,8 92,0 0,2 203 - 5,0 0 1.010,7
21:48 14,8 13,5 14,8 92,0 0,3 203 - 5,0 0 1.010,7
21:47 14,8 13,5 14,8 92,0 0,5 203 - 5,0 0 1.010,7
21:46 14,8 13,5 14,8 92,0 0,6 203 - 5,0 0 1.010,7
21:45 14,8 13,5 14,8 92,0 0,6 217 - 5,0 0 1.010,7
21:44 14,8 13,5 14,8 92,0 0,5 217 - 5,0 0 1.010,7
21:43 14,8 13,5 14,8 92,0 0,5 205 - 5,0 0 1.010,7
21:42 14,8 13,5 14,8 92,0 0,6 205 - 5,0 0 1.010,7
21:41 14,8 13,5 14,8 92,0 0,6 203 - 5,0 0 1.010,7
21:40 14,8 13,4 14,7 91,5 0,3 202 - 5,0 0 1.010,7
21:39 14,8 13,4 14,7 91,7 0,2 180 - 5,0 0 1.010,7
21:38 14,8 13,5 14,8 92,0 0,2 180 - 5,0 0 1.010,6
21:37 14,8 13,5 14,8 92,0 0,3 123 - 5,0 0 1.010,6
21:36 14,8 13,4 14,7 91,5 0,4 124 - 5,0 0 1.010,6
21:35 14,8 13,3 14,7 91,0 0,3 149 - 5,0 0 1.010,5
21:34 14,8 13,5 14,8 91,6 0,3 151 - 5,0 0 1.010,5
21:33 14,8 13,5 14,8 92,0 0,2 105 - 5,0 0 1.010,5
21:32 14,8 13,4 14,7 91,2 0,3 236 - 5,0 0 1.010,5
21:31 14,8 13,5 14,8 91,8 0,4 140 - 5,0 0 1.010,5
21:30 14,8 13,4 14,7 91,0 0,4 175 - 5,0 0 1.010,5
21:29 14,8 13,4 14,7 91,0 0,3 159 - 5,0 0 1.010,6
21:28 14,8 13,5 14,8 91,6 0,2 147 - 5,0 0 1.010,6
21:27 14,8 13,4 14,7 91,3 0,2 208 - 5,0 0 1.010,5
21:26 14,8 13,4 14,7 91,1 0,3 208 - 5,0 0 1.010,6
21:25 14,8 13,5 14,8 92,0 0,3 207 - 5,0 0 1.010,6
21:24 14,8 13,5 14,8 92,0 0,2 130 - 5,0 0 1.010,6
21:23 14,8 13,5 14,8 92,0 0,2 188 - 5,0 0 1.010,6
21:22 14,8 13,5 14,8 92,0 0,2 187 - 5,0 0 1.010,6
21:21 14,9 13,5 14,9 92,0 0,4 186 - 5,0 0 1.010,6
21:20 14,9 13,5 14,8 92,0 0,6 190 - 5,0 0 1.010,6
21:19 14,9 13,6 14,9 92,0 0,6 192 - 5,0 0 1.010,5
21:18 14,9 13,6 14,9 92,0 0,7 192 - 5,0 0 1.010,5
21:17 14,9 13,6 14,9 92,0 0,8 190 - 5,0 0 1.010,5
21:16 14,9 13,6 14,9 92,0 0,7 189 - 5,0 0 1.010,5
21:15 14,9 13,6 14,9 92,0 0,4 162 - 5,0 0 1.010,5
21:14 14,9 13,6 14,9 92,0 0,3 162 - 5,0 0 1.010,5
21:13 14,9 13,6 14,9 92,0 0,3 175 - 5,0 0 1.010,5
21:12 14,9 13,6 14,9 92,0 0,4 141 - 5,0 0 1.010,4
21:11 14,9 13,6 14,9 92,0 0,4 145 - 5,0 0 1.010,5
21:10 14,9 13,6 14,9 92,0 0,5 209 - 5,0 0 1.010,5
21:09 14,9 13,6 14,9 92,0 0,5 156 - 5,0 0 1.010,5
21:08 14,9 13,6 14,9 92,0 0,4 111 - 5,0 0 1.010,5
21:07 14,9 13,6 14,9 92,0 0,3 209 - 5,0 0 1.010,5
21:06 14,9 13,6 14,9 92,0 0,3 61 - 5,0 0 1.010,5
21:05 14,9 13,6 14,9 92,0 0,5 133 - 5,0 0 1.010,5
21:04 14,9 13,6 14,9 92,0 0,5 176 - 5,0 0 1.010,5
21:03 14,9 13,6 14,9 92,0 0,6 225 - 5,0 0 1.010,5
21:02 14,9 13,6 14,9 92,0 0,8 194 - 5,0 2 1.010,6
21:01 14,9 13,6 14,9 92,0 1,0 211 - 5,0 5 1.010,6
21:00 14,9 13,6 14,9 92,0 1,4 199 - 5,0 5 1.010,6
 
20:59 14,9 13,6 14,9 92,0 1,7 192 - 5,0 5 1.010,5
20:58 14,9 13,6 14,9 92,0 1,7 207 - 5,0 5 1.010,5
20:57 14,9 13,6 14,9 92,0 1,3 190 - 5,0 8 1.010,5
20:56 14,9 13,6 14,9 92,0 1,3 215 - 5,0 9 1.010,5
20:55 14,9 13,6 14,9 92,0 1,4 192 - 5,0 9 1.010,5
20:54 14,9 13,6 14,9 92,0 1,4 188 - 5,0 11 1.010,5
20:53 14,9 13,6 14,9 92,0 1,2 184 - 5,0 11 1.010,5
20:52 14,9 13,6 14,9 92,0 1,1 195 - 5,0 11 1.010,4
20:51 14,9 13,6 14,9 92,0 1,2 198 - 5,0 11 1.010,4
20:50 14,9 13,6 14,9 92,0 1,1 194 - 5,0 11 1.010,4
20:49 14,9 13,6 14,9 92,0 0,9 187 - 5,0 11 1.010,4
20:48 14,9 13,6 14,9 92,0 0,8 223 - 5,0 11 1.010,4
20:47 14,9 13,6 14,9 92,0 0,8 186 - 5,0 11 1.010,4
20:46 14,9 13,6 14,9 92,0 0,9 203 - 5,0 11 1.010,4
20:45 14,9 13,6 14,9 92,0 0,7 213 - 5,0 11 1.010,4
20:44 14,8 13,5 14,8 92,0 0,8 175 - 5,0 11 1.010,4
20:43 14,8 13,5 14,8 92,0 1,0 198 - 5,0 11 1.010,4
20:42 14,9 13,6 14,9 92,0 1,2 170 - 5,0 12 1.010,3
20:41 14,8 13,5 14,8 92,0 1,1 197 - 5,0 14 1.010,3
20:40 14,9 13,5 14,9 92,0 1,4 198 - 5,0 17 1.010,3
20:39 14,8 13,5 14,8 92,0 1,8 197 - 5,0 18 1.010,2
20:38 14,9 13,6 14,9 92,0 1,7 192 - 5,0 19 1.010,2
20:37 14,8 13,5 14,8 92,0 1,5 186 - 5,0 19 1.010,2
20:36 14,9 13,6 14,9 92,0 1,4 201 - 5,0 21 1.010,2
20:35 14,9 13,6 14,9 92,0 1,3 172 - 5,0 21 1.010,1
20:34 14,9 13,6 14,9 92,0 1,2 191 - 5,0 23 1.010,2
20:33 14,9 13,6 14,9 92,0 1,2 188 - 5,0 24 1.010,1
20:32 14,9 13,6 14,9 92,0 1,4 192 - 5,0 26 1.010,1
20:31 14,9 13,6 14,9 92,0 1,4 194 - 5,0 26 1.010,1
20:30 14,9 13,6 14,9 92,0 1,2 207 - 5,0 28 1.010,1
20:29 14,9 13,6 14,9 92,0 1,0 191 - 5,0 30 1.010,1
20:28 14,9 13,6 14,9 92,0 0,9 249 - 5,0 30 1.010,1
20:27 14,9 13,6 14,9 92,0 0,8 184 - 5,0 31 1.010,1
20:26 14,9 13,6 14,9 92,0 0,4 192 - 5,0 33 1.010,1
20:25 14,9 13,6 14,9 92,0 0,3 141 - 5,0 33 1.010,0
20:24 14,8 13,5 14,8 92,0 0,5 126 - 5,0 36 1.010,0
20:23 14,8 13,5 14,8 92,0 0,7 212 - 5,0 40 1.010,0
20:22 14,8 13,5 14,8 92,0 0,9 191 - 5,0 39 1.010,1
20:21 14,8 13,5 14,8 92,0 1,0 186 - 5,0 33 1.010,1
20:20 14,8 13,5 14,8 92,0 1,2 162 - 5,0 31 1.010,0
20:19 14,8 13,5 14,8 92,0 1,4 208 - 5,0 30 1.010,0
20:18 14,8 13,5 14,8 92,0 1,5 198 - 5,0 32 1.010,0
20:17 14,8 13,5 14,8 92,0 1,5 226 - 5,0 29 1.010,0
20:16 14,8 13,5 14,8 92,0 1,4 203 - 5,0 32 1.010,0
20:15 14,8 13,5 14,8 92,0 1,3 213 - 5,0 32 1.010,0
20:14 14,8 13,5 14,8 92,0 1,1 211 - 5,0 30 1.009,9
20:13 14,8 13,5 14,8 92,0 1,0 211 - 5,0 30 1.009,9
20:12 14,8 13,5 14,8 92,0 0,7 236 - 5,0 32 1.009,9
20:11 14,8 13,5 14,8 92,0 0,6 208 - 5,0 33 1.009,9
20:10 14,8 13,5 14,8 92,0 0,9 197 - 5,0 36 1.009,9
20:09 14,8 13,5 14,8 92,0 1,4 188 - 5,0 38 1.010,0
20:08 14,8 13,5 14,8 92,0 1,7 207 - 5,0 40 1.009,9
20:07 14,8 13,5 14,8 92,0 1,6 205 - 5,0 42 1.009,9
20:06 14,8 13,6 14,4 92,6 1,2 183 - 5,0 42 1.009,9
20:05 14,8 13,6 14,4 93,0 0,9 208 - 5,0 42 1.009,9
20:04 14,8 13,7 14,4 93,0 0,8 176 - 5,0 40 1.009,8
20:03 14,8 13,6 14,4 93,0 0,9 212 - 5,0 38 1.009,8
20:02 14,8 13,6 14,4 93,0 0,8 197 - 5,0 36 1.009,8
20:01 14,8 13,6 14,4 93,0 0,6 226 - 5,0 35 1.009,8
20:00 14,8 13,6 14,4 93,0 0,4 140 - 5,0 32 1.009,9
 
19:59 14,8 13,6 14,4 93,0 0,3 184 - 5,0 33 1.009,8
19:58 14,8 13,6 14,4 93,0 0,3 184 - 5,0 33 1.009,8
19:57 14,8 13,6 14,4 93,0 0,3 170 - 5,0 31 1.009,8
19:56 14,8 13,6 14,4 93,0 0,4 176 - 5,0 29 1.009,8
19:55 14,8 13,6 14,4 93,0 0,6 199 - 5,0 28 1.009,8
19:54 14,8 13,6 14,4 93,0 0,9 199 - 5,0 28 1.009,8
19:53 14,8 13,6 14,4 93,0 1,2 198 - 5,0 29 1.009,8
19:52 14,7 13,6 14,4 93,0 1,2 197 - 5,0 28 1.009,8
19:51 14,8 13,6 14,4 93,0 1,1 222 - 5,0 28 1.009,8
19:50 14,7 13,6 14,4 93,0 1,1 186 - 5,0 28 1.009,8
19:49 14,8 13,6 14,4 93,0 1,2 196 - 5,0 26 1.009,8
19:48 14,8 13,6 14,4 93,0 1,2 199 - 5,0 26 1.009,7
19:47 14,8 13,6 14,4 93,0 1,0 182 - 5,0 25 1.009,7
19:46 14,8 13,6 14,4 93,0 0,8 196 - 5,0 24 1.009,7
19:45 14,8 13,6 14,4 93,0 0,8 200 - 5,0 23 1.009,7
19:44 14,7 13,6 14,4 93,0 0,8 220 - 5,0 23 1.009,7
19:43 14,8 13,6 14,4 93,0 0,9 194 - 5,0 21 1.009,8
19:42 14,8 13,6 14,4 93,0 0,8 196 - 5,0 21 1.009,8
19:41 14,8 13,6 14,4 93,0 0,8 151 - 5,0 19 1.009,8
19:40 14,8 13,6 14,4 93,0 1,0 207 - 5,0 19 1.009,8
19:39 14,8 13,6 14,4 93,0 1,0 183 - 5,0 18 1.009,8
19:38 14,8 13,6 14,4 93,0 0,9 200 - 5,0 19 1.009,8
19:37 14,8 13,6 14,4 93,0 1,1 195 - 5,0 19 1.009,8
19:36 14,8 13,6 14,4 93,0 1,5 159 - 5,0 21 1.009,9
19:35 14,8 13,7 14,4 93,0 1,7 180 - 5,0 21 1.009,9
19:34 14,8 13,7 14,5 93,0 1,7 195 - 5,0 20 1.009,9
19:33 14,8 13,7 14,5 93,0 1,8 221 - 5,0 19 1.009,8
19:32 14,9 13,7 14,5 93,0 1,9 182 - 5,0 21 1.009,8
19:31 14,9 13,8 14,5 93,0 1,9 215 - 5,0 21 1.009,9
19:30 14,9 13,8 14,6 93,0 1,1 216 - 5,0 23 1.009,8
19:29 15,0 13,8 14,6 93,0 0,5 58 - 5,0 25 1.009,8
19:28 15,0 13,8 14,6 93,0 0,6 206 - 5,0 27 1.009,8
19:27 15,0 13,8 14,6 93,0 1,1 203 - 5,0 28 1.009,8
19:26 15,0 13,8 14,6 93,0 1,1 254 - 5,0 30 1.009,8
19:25 15,0 13,9 14,6 93,0 1,4 191 - 5,0 30 1.009,8
19:24 15,0 13,9 14,6 93,0 1,6 222 - 5,0 34 1.009,7
19:23 15,0 13,9 14,7 93,0 1,6 210 - 5,0 37 1.009,8
19:22 15,1 13,9 14,7 93,0 1,6 182 - 5,0 42 1.009,8
19:21 15,1 13,9 14,7 93,0 1,8 164 - 5,0 45 1.009,8
19:20 15,1 14,0 14,7 93,0 1,9 205 - 5,0 47 1.009,8
19:19 15,1 14,0 14,7 93,0 1,6 199 - 5,0 51 1.009,8
19:18 15,1 14,0 14,7 93,0 1,2 196 - 5,0 53 1.009,7
19:17 15,1 14,0 14,7 93,1 1,1 230 - 5,0 55 1.009,7
19:15 15,2 14,2 14,8 94,0 1,0 203 - 5,0 66 1.009,7
19:14 15,2 14,2 14,8 94,0 1,0 174 - 5,0 75 1.009,7
19:13 15,2 14,2 14,9 94,0 1,1 203 - 5,0 81 1.009,7
19:12 15,2 14,2 14,8 94,0 1,1 195 - 5,0 82 1.009,7
19:11 15,2 14,2 14,8 94,0 1,0 199 - 5,0 89 1.009,7
19:10 15,2 14,2 14,9 94,0 1,1 217 - 5,0 104 1.009,7
19:09 15,2 14,2 14,9 94,0 1,1 193 - 5,0 108 1.009,7
19:08 15,2 14,2 14,9 94,0 1,0 198 - 5,0 104 1.009,7
19:07 15,2 14,2 14,8 94,0 0,9 242 - 5,0 98 1.009,7
19:06 15,2 14,2 14,9 94,0 0,7 184 - 5,0 96 1.009,7
19:05 15,2 14,2 14,8 94,0 0,4 207 - 5,0 96 1.009,7
19:04 15,2 14,2 14,8 94,0 0,3 78 - 5,0 98 1.009,7
19:03 15,2 14,2 14,8 94,0 0,8 234 - 5,0 92 1.009,7
19:02 15,2 14,2 14,8 94,0 1,6 212 - 5,0 90 1.009,7
19:01 15,2 14,2 14,9 94,0 1,7 203 - 5,0 84 1.009,7
19:00 15,2 14,2 14,9 94,0 1,6 211 - 5,0 84 1.009,7
 
18:59 15,2 14,2 14,9 94,0 1,4 178 - 5,0 88 1.009,7
18:58 15,2 14,2 14,9 94,0 1,2 204 - 5,0 95 1.009,7
18:57 15,2 14,2 14,9 94,0 1,1 174 - 5,0 103 1.009,7
18:56 15,2 14,2 14,9 94,0 1,3 132 - 5,0 107 1.009,7
18:55 15,2 14,3 14,9 94,0 1,3 211 - 5,0 108 1.009,7
18:54 15,3 14,3 14,9 94,0 1,4 202 - 5,0 105 1.009,7
18:53 15,3 14,3 14,9 94,0 1,2 205 - 5,0 111 1.009,7
18:52 15,3 14,3 14,9 94,0 1,0 194 - 5,0 114 1.009,7
18:51 15,2 14,2 14,9 94,0 0,9 186 - 5,0 121 1.009,7
18:50 15,2 14,2 14,9 94,0 0,8 217 - 5,0 134 1.009,7
18:49 15,2 14,2 14,9 94,0 0,9 195 - 5,0 135 1.009,7
18:48 15,2 14,2 14,9 94,0 1,1 203 - 5,0 107 1.009,7
18:47 15,2 14,2 14,9 94,0 1,3 184 - 5,0 104 1.009,7
18:46 15,2 14,2 14,9 94,0 1,7 188 - 5,0 100 1.009,7
18:45 15,2 14,2 14,9 94,0 1,9 203 - 5,0 94 1.009,8
18:44 15,2 14,2 14,9 94,0 1,8 211 - 5,0 98 1.009,8
18:43 15,2 14,2 14,9 94,0 1,8 264 - 5,0 98 1.009,7
18:42 15,2 14,2 14,9 94,0 1,8 211 - 5,0 97 1.009,7
18:41 15,3 14,3 14,9 94,0 2,2 174 - 5,0 95 1.009,7
18:40 15,3 14,3 14,9 94,0 2,0 199 - 5,0 93 1.009,8
18:39 15,3 14,3 14,9 94,0 1,7 211 - 5,0 90 1.009,8
18:38 15,2 14,2 14,9 94,0 1,5 205 - 5,0 81 1.009,8
18:37 15,2 14,2 14,9 94,0 1,4 215 - 5,0 81 1.009,8
18:36 15,2 14,2 14,9 94,0 0,9 201 - 5,0 80 1.009,7
18:35 15,2 14,2 14,9 94,0 1,1 105 - 5,0 81 1.009,7
18:34 15,2 14,2 14,9 94,0 1,5 207 - 5,0 87 1.009,6
18:33 15,2 14,2 14,9 94,0 1,9 198 - 5,0 88 1.009,7
18:32 15,2 14,2 14,9 94,0 2,0 236 - 5,0 101 1.009,7
18:31 15,2 14,2 14,9 94,0 2,2 218 - 5,0 104 1.009,7
18:30 15,2 14,2 14,9 94,0 2,2 231 - 5,0 111 1.009,7
18:29 15,2 14,2 14,9 94,0 2,1 166 - 5,0 108 1.009,7
18:28 15,2 14,2 14,9 94,0 2,0 201 - 5,0 100 1.009,7
18:27 15,2 14,2 14,9 94,0 1,9 215 - 5,0 103 1.009,7
18:26 15,2 14,2 14,9 94,0 1,7 208 - 5,0 109 1.009,7
18:25 15,2 14,2 14,9 94,0 1,4 208 - 5,0 112 1.009,7
18:24 15,2 14,2 14,9 94,0 1,2 159 - 5,0 115 1.009,7
18:23 15,2 14,2 14,8 94,0 1,1 195 - 5,0 121 1.009,7
18:22 15,2 14,2 14,8 94,0 0,9 201 - 5,0 123 1.009,7
18:21 15,1 14,1 14,8 94,0 0,8 125 - 5,0 127 1.009,7
18:20 15,1 14,1 14,8 94,0 0,8 226 - 5,0 127 1.009,7
18:19 15,1 14,1 14,8 94,0 1,4 209 - 5,0 129 1.009,7
18:18 15,1 14,1 14,8 94,0 2,0 196 - 5,0 132 1.009,7
18:17 15,1 14,1 14,8 94,0 2,4 185 - 5,0 135 1.009,7
18:16 15,1 14,1 14,8 94,0 2,4 209 - 5,0 140 1.009,7
18:15 15,1 14,1 14,8 94,0 2,1 205 - 5,0 142 1.009,8
18:14 15,1 14,1 14,8 94,0 1,8 245 - 5,0 144 1.009,8
18:13 15,1 14,1 14,8 94,0 1,6 216 - 5,0 142 1.009,8
18:12 15,1 14,1 14,7 94,0 1,9 184 - 5,0 140 1.009,8
18:11 15,1 14,1 14,7 94,0 2,3 199 - 5,0 136 1.009,8
18:10 15,1 14,1 14,7 94,0 2,4 217 - 5,0 131 1.009,7
18:09 15,1 14,1 14,7 94,0 2,0 215 - 5,0 125 1.009,8
18:08 15,1 14,1 14,7 94,0 1,8 156 - 5,0 119 1.009,8
18:07 15,1 14,1 14,7 94,0 2,1 197 - 5,0 112 1.009,8
18:06 15,1 14,1 14,7 94,0 1,8 190 - 5,0 104 1.009,8
18:05 15,1 14,1 14,7 94,0 1,7 240 - 5,0 95 1.009,7
18:04 15,1 14,1 14,7 94,0 1,7 263 - 5,0 89 1.009,8
18:03 15,0 14,1 14,7 94,0 1,9 217 - 5,0 83 1.009,8
18:02 15,1 14,1 14,7 94,0 2,0 204 - 5,0 78 1.009,7
18:01 15,0 14,0 14,7 94,0 1,9 248 - 5,0 75 1.009,7
18:00 15,0 14,0 14,7 94,0 1,6 197 - 5,0 73 1.009,7
 
17:59 15,0 14,0 14,7 94,0 1,3 235 - 5,0 71 1.009,7
17:58 15,0 14,0 14,7 94,0 1,2 254 - 5,0 69 1.009,7
17:57 15,0 14,0 14,6 94,0 1,2 217 - 5,0 69 1.009,7
17:56 15,0 14,0 14,6 94,0 1,5 205 - 5,0 67 1.009,6
17:55 14,9 14,0 14,6 94,0 1,5 203 - 5,0 66 1.009,6
17:54 14,9 14,0 14,6 94,0 1,3 199 - 5,0 64 1.009,6
17:53 14,9 13,9 14,6 94,0 1,0 215 - 5,0 63 1.009,6
17:52 14,9 13,9 14,6 94,0 0,8 205 - 5,0 63 1.009,6
17:51 14,9 13,9 14,6 94,0 0,7 205 - 5,0 62 1.009,6
17:50 14,9 13,9 14,6 94,0 0,6 188 - 5,0 58 1.009,6
17:49 14,9 13,9 14,6 94,0 0,8 213 - 5,0 56 1.009,6
17:48 14,9 13,9 14,5 94,0 0,6 233 - 5,0 55 1.009,6
17:47 14,9 13,9 14,5 94,0 0,4 124 - 5,0 54 1.009,6
17:46 14,8 13,9 14,5 94,0 0,3 228 - 5,0 54 1.009,6
17:45 14,8 13,9 14,5 94,0 0,2 64 - 5,0 54 1.009,6
17:44 14,8 13,8 14,5 94,0 0,3 203 - 5,0 54 1.009,6
17:43 14,8 13,8 14,5 94,0 0,9 217 - 5,0 56 1.009,6
17:42 14,8 13,8 14,5 94,0 0,9 214 - 5,0 60 1.009,6
17:41 14,8 13,8 14,5 94,0 0,7 217 - 5,0 64 1.009,6
17:40 14,8 13,8 14,5 94,0 0,7 178 - 5,0 67 1.009,6
17:39 14,7 13,8 14,4 94,0 0,9 215 - 5,0 69 1.009,5
17:38 14,7 13,8 14,4 94,0 1,2 201 - 5,0 72 1.009,6
17:37 14,7 13,7 14,4 94,0 1,1 203 - 5,0 77 1.009,6
17:36 14,7 13,7 14,4 94,0 0,7 213 - 5,0 81 1.009,6
17:35 14,7 13,7 14,4 94,0 0,4 180 - 5,0 83 1.009,6
17:34 14,7 13,7 14,4 94,0 0,6 189 - 5,0 79 1.009,6
17:33 14,7 13,7 14,3 94,0 1,0 189 - 5,0 76 1.009,6
17:32 14,7 13,7 14,3 94,0 1,6 199 - 5,0 74 1.009,6
17:31 14,7 13,7 14,4 94,0 1,8 195 - 5,0 75 1.009,6
17:30 14,7 13,7 14,4 94,0 1,7 199 - 5,0 77 1.009,6
17:29 14,7 13,7 14,3 94,0 1,5 205 - 5,0 79 1.009,6
17:28 14,7 13,7 14,4 94,0 1,5 201 - 5,0 77 1.009,6
17:27 14,7 13,7 14,3 94,0 1,5 217 - 5,0 75 1.009,6
17:26 14,7 13,7 14,3 94,0 1,4 180 - 5,0 67 1.009,6
17:25 14,7 13,7 14,3 94,0 1,4 208 - 5,0 60 1.009,6
17:24 14,6 13,7 14,3 94,0 1,4 216 - 5,0 56 1.009,7
17:23 14,6 13,6 14,3 94,0 1,6 222 - 5,0 52 1.009,7
17:22 14,6 13,7 14,3 94,0 1,8 232 - 5,0 49 1.009,7
17:21 14,7 13,7 14,3 94,0 1,8 209 - 5,0 52 1.009,6
17:20 14,6 13,7 14,3 94,0 1,5 205 - 5,0 60 1.009,6
17:19 14,7 13,7 14,3 94,0 1,2 198 - 5,0 61 1.009,6
17:18 14,6 13,7 14,3 94,0 1,1 198 - 5,0 61 1.009,7
17:17 14,7 13,7 14,3 94,0 1,2 201 - 5,0 57 1.009,7
17:16 14,7 13,7 14,3 94,0 1,2 213 - 5,0 56 1.009,7
17:15 14,7 13,7 14,3 94,0 1,2 205 - 5,0 63 1.009,7
17:14 14,7 13,7 14,3 94,0 1,2 217 - 5,0 75 1.009,7
17:13 14,7 13,7 14,3 94,0 0,9 217 - 5,0 91 1.009,7
17:12 14,6 13,6 14,3 94,0 0,5 228 - 5,0 98 1.009,6
17:11 14,7 13,7 14,3 94,0 0,5 228 - 5,0 97 1.009,6
17:10 14,6 13,7 14,3 94,0 0,9 228 - 5,0 93 1.009,6
17:09 14,6 13,6 14,3 94,0 1,1 228 - 5,0 91 1.009,7
17:08 14,6 13,6 14,3 94,0 1,0 228 - 5,0 89 1.009,7
17:07 14,6 13,6 14,3 94,0 0,9 228 - 5,0 81 1.009,7
17:06 14,6 13,6 14,3 94,0 0,9 228 - 5,0 59 1.009,7
17:05 14,6 13,6 14,3 94,0 1,1 228 - 5,0 51 1.009,8
17:04 14,6 13,6 14,3 94,0 1,3 229 - 5,0 42 1.009,7
17:03 14,6 13,7 14,3 94,0 1,3 229 - 5,0 36 1.009,7
17:02 14,6 13,7 14,3 94,0 1,3 229 - 5,0 34 1.009,8
17:01 14,6 13,7 14,3 94,0 1,4 229 - 5,0 32 1.009,7
17:00 14,6 13,6 14,3 94,0 1,6 232 - 5,0 32 1.009,8
 
16:59 14,6 13,6 14,3 94,0 1,6 228 - 5,0 33 1.009,8
16:58 14,6 13,6 14,3 94,0 1,7 237 - 5,0 34 1.009,8
16:57 14,6 13,6 14,3 94,0 1,7 231 - 5,0 38 1.009,8
16:56 14,6 13,6 14,2 94,0 1,8 239 - 5,0 39 1.009,8
16:55 14,6 13,6 14,2 94,0 1,9 247 - 5,0 42 1.009,8
16:54 14,6 13,6 14,2 94,0 2,0 225 - 5,0 44 1.009,8
16:53 14,6 13,6 14,2 94,0 2,2 236 - 5,0 46 1.009,8
16:52 14,6 13,6 14,3 94,0 2,4 242 - 5,0 46 1.009,8
16:51 14,6 13,6 14,2 94,0 2,6 242 - 5,0 49 1.009,8
16:50 14,6 13,6 14,2 94,0 2,7 251 - 5,0 54 1.009,8
16:49 14,6 13,6 14,3 94,0 2,6 254 - 5,0 55 1.009,9
16:48 14,6 13,6 14,3 94,0 2,7 199 - 5,0 55 1.009,8
16:47 14,6 13,6 14,3 94,0 3,1 257 - 5,0 53 1.009,8
16:46 14,6 13,6 14,3 94,0 3,3 213 - 4,8 48 1.009,8
16:45 14,6 13,6 14,3 94,0 3,6 247 - 4,8 45 1.009,8
16:44 14,6 13,6 14,3 94,0 4,0 249 - 4,8 39 1.009,8
16:43 14,6 13,7 14,3 94,0 4,3 254 - 4,6 33 1.009,8
16:42 14,6 13,7 14,3 94,0 4,4 272 - 4,6 30 1.009,8
16:41 14,6 13,7 14,3 94,0 4,3 262 - 4,6 26 1.009,8
16:40 14,7 13,7 14,3 94,0 4,2 255 - 4,6 23 1.009,8
16:39 14,7 13,7 14,3 94,0 4,1 278 - 4,6 21 1.009,9
16:38 14,7 13,7 14,3 94,0 4,1 253 - 4,6 22 1.009,8
16:37 14,7 13,7 14,3 94,0 4,1 254 - 4,6 25 1.009,8
16:36 14,7 13,7 14,4 94,0 3,7 268 - 4,6 26 1.009,8
16:35 14,7 13,7 14,4 94,0 3,0 255 - 4,6 25 1.009,8
16:34 14,7 13,7 14,3 94,0 2,5 246 - 4,6 25 1.009,9
16:33 14,7 13,7 14,4 94,0 2,3 239 - 4,6 24 1.009,9
16:32 14,7 13,7 14,4 94,0 2,1 238 - 4,6 27 1.009,9
16:31 14,7 13,7 14,4 94,0 2,1 256 - 4,6 29 1.009,8
16:30 14,7 13,7 14,4 94,0 2,4 251 - 4,6 32 1.009,9
16:29 14,7 13,8 14,4 94,0 2,8 255 - 4,6 26 1.009,8
16:28 14,8 13,8 14,4 94,0 2,8 232 - 4,6 25 1.009,8
16:27 14,8 13,8 14,4 94,0 2,2 238 - 4,6 25 1.009,8
16:26 14,8 13,8 14,5 94,0 1,6 237 - 4,6 26 1.009,7
16:25 14,7 13,8 14,4 94,0 1,2 238 - 4,6 27 1.009,7
16:24 14,7 13,7 14,4 94,0 1,2 209 - 4,6 31 1.009,7
16:23 14,7 13,8 14,4 94,0 1,3 234 - 4,6 36 1.009,8
16:22 14,7 13,7 14,4 94,0 1,4 233 - 4,6 45 1.009,8
16:21 14,7 13,7 14,4 94,0 1,5 238 - 4,6 57 1.009,8
16:20 14,7 13,8 14,4 94,0 1,4 231 - 4,6 60 1.009,8
16:19 14,7 13,7 14,4 94,0 1,2 219 - 4,6 52 1.009,8
16:18 14,7 13,7 14,4 94,0 1,1 238 - 4,6 46 1.009,8
16:17 14,7 13,7 14,4 94,0 1,3 240 - 4,6 45 1.009,8
16:16 14,7 13,7 14,4 94,0 1,5 239 - 4,6 41 1.009,8
16:15 14,7 13,7 14,4 94,0 1,6 244 - 4,6 41 1.009,8
16:14 14,7 13,7 14,4 94,0 1,7 240 - 4,6 45 1.009,9
16:13 14,7 13,7 14,4 94,0 1,7 231 - 4,6 52 1.009,8
16:12 14,7 13,7 14,4 94,0 1,9 238 - 4,6 54 1.009,8
16:11 14,7 13,7 14,4 94,0 2,3 247 - 4,6 50 1.009,9
16:10 14,7 13,7 14,4 94,0 2,7 257 - 4,4 42 1.009,9
16:09 14,7 13,7 14,4 94,0 2,7 253 - 4,4 37 1.009,9
16:08 14,8 13,8 14,4 94,0 2,3 247 - 4,4 37 1.009,9
16:07 14,8 13,8 14,4 94,0 1,9 248 - 4,4 42 1.009,9
16:06 14,7 13,8 14,4 94,0 1,9 240 - 4,4 44 1.009,9
16:05 14,7 13,8 14,4 94,0 2,0 238 - 4,4 44 1.009,9
16:04 14,8 13,8 14,4 94,0 2,0 244 - 4,4 46 1.009,9
16:03 14,8 13,8 14,4 94,0 2,1 249 - 4,4 47 1.009,9
16:02 14,7 13,7 14,4 94,0 2,1 255 - 4,4 50 1.010,0
16:01 14,7 13,8 14,4 94,0 2,1 254 - 4,4 53 1.010,0
16:00 14,7 13,8 14,4 94,0 2,3 255 - 4,4 49 1.009,9
 
15:59 14,7 13,7 14,4 94,0 2,4 256 - 4,4 47 1.009,9
15:58 14,7 13,7 14,4 94,0 2,5 257 - 4,4 41 1.010,0
15:57 14,7 13,7 14,4 94,0 2,6 260 - 4,4 37 1.010,0
15:56 14,7 13,7 14,4 94,0 3,0 255 - 4,4 37 1.010,0
15:55 14,7 13,7 14,4 94,0 3,4 260 - 4,4 37 1.010,0
15:54 14,7 13,7 14,4 94,0 3,8 253 - 4,2 35 1.010,0
15:53 14,7 13,7 14,4 94,0 3,8 263 - 4,2 38 1.010,0
15:52 14,7 13,7 14,4 94,0 3,8 232 - 4,2 40 1.010,0
15:51 14,7 13,6 14,3 93,0 3,7 264 - 4,2 43 1.010,0
15:50 14,7 13,6 14,3 93,0 3,5 234 - 4,2 44 1.010,0
15:49 14,7 13,6 14,3 93,0 3,4 271 - 4,2 41 1.010,0
15:48 14,7 13,6 14,3 93,0 3,5 260 - 4,2 41 1.010,0
15:47 14,7 13,6 14,3 93,0 3,6 257 - 4,2 46 1.010,1
15:46 14,7 13,6 14,3 93,0 3,8 288 - 4,2 49 1.010,1
15:45 14,7 13,6 14,4 93,3 3,8 261 - 4,2 58 1.010,1
15:44 14,8 13,8 14,4 94,0 3,8 256 - 4,2 68 1.010,1
15:43 14,8 13,8 14,5 94,0 3,6 255 - 4,2 76 1.010,1
15:42 14,8 13,8 14,5 94,0 3,5 247 - 4,2 91 1.010,1
15:41 14,8 13,8 14,5 94,0 3,4 243 - 4,2 105 1.010,1
15:40 14,8 13,7 14,4 93,2 3,3 242 - 4,2 112 1.010,1
15:39 14,8 13,8 14,5 93,8 3,4 247 - 4,2 115 1.010,1
15:38 14,8 13,7 14,4 93,0 3,4 249 - 4,2 123 1.010,1
15:37 14,8 13,7 14,4 93,0 3,5 240 - 4,2 130 1.010,1
15:36 14,8 13,7 14,4 93,0 3,6 247 - 4,2 134 1.010,2
15:35 14,8 13,7 14,5 93,0 3,6 264 - 4,2 137 1.010,2
15:34 14,8 13,7 14,5 93,0 3,6 247 - 4,2 142 1.010,1
15:33 14,8 13,7 14,5 93,0 3,6 252 - 4,0 144 1.010,2
15:32 14,8 13,7 14,5 93,0 3,4 261 - 4,0 146 1.010,2
15:31 14,8 13,7 14,5 93,0 3,1 255 - 4,0 146 1.010,2
15:30 14,8 13,7 14,5 93,0 3,1 237 - 4,0 145 1.010,2
15:29 14,9 13,7 14,5 93,0 3,2 206 - 4,0 139 1.010,2
15:28 14,9 13,7 14,5 93,0 3,0 238 - 4,0 132 1.010,3
15:27 14,9 13,7 14,5 93,0 2,9 253 - 4,0 128 1.010,3
15:26 14,9 13,7 14,5 93,0 2,9 241 - 4,0 124 1.010,3
15:25 14,9 13,7 14,5 93,0 3,2 253 - 4,0 120 1.010,3
15:24 14,9 13,7 14,5 93,0 3,4 243 - 4,0 117 1.010,2
15:23 14,9 13,7 14,5 93,0 3,4 238 - 4,0 110 1.010,2
15:22 14,9 13,7 14,5 93,0 3,1 257 - 4,0 103 1.010,2
15:21 14,9 13,7 14,5 93,0 3,0 265 - 4,0 99 1.010,3
15:20 14,9 13,7 14,5 93,0 3,0 233 - 4,0 98 1.010,3
15:19 14,9 13,8 14,5 93,0 3,3 263 - 4,0 104 1.010,3
15:18 14,9 13,8 14,5 93,0 3,5 241 - 4,0 108 1.010,3
15:17 14,9 13,8 14,6 93,0 3,4 247 - 4,0 105 1.010,3
15:16 14,9 13,7 14,5 93,0 3,4 267 - 4,0 105 1.010,4
15:15 14,9 13,8 14,5 93,0 3,6 248 - 4,0 105 1.010,4
15:14 14,9 13,8 14,5 93,0 3,8 259 - 4,0 107 1.010,3
15:13 14,9 13,8 14,5 93,0 3,8 238 - 3,8 107 1.010,3
15:12 14,9 13,8 14,6 93,0 4,1 219 - 3,8 109 1.010,3
15:11 14,9 13,8 14,6 93,0 3,9 225 - 3,8 107 1.010,4
15:10 14,9 13,8 14,6 93,0 3,9 267 - 3,8 111 1.010,3
15:09 15,0 13,8 14,6 93,0 4,0 247 - 3,8 117 1.010,3
15:08 14,9 13,8 14,6 93,0 4,0 261 - 3,8 118 1.010,4
15:07 14,9 13,8 14,6 93,0 3,9 260 - 3,8 112 1.010,4
15:06 14,9 13,8 14,6 93,0 3,8 232 - 3,8 102 1.010,4
15:05 15,0 13,8 14,6 93,0 3,9 213 - 3,8 98 1.010,4
15:04 15,0 13,8 14,6 93,0 3,8 234 - 3,8 105 1.010,4
15:03 15,0 13,8 14,6 93,0 4,0 253 - 3,8 117 1.010,4
15:02 15,0 13,9 14,6 93,0 4,1 253 - 3,8 139 1.010,4
15:01 15,0 13,7 14,6 92,4 4,0 242 - 3,8 142 1.010,4
15:00 15,0 13,7 15,0 92,0 3,8 260 - 3,8 128 1.010,4
 
14:59 15,0 13,7 14,6 92,2 3,7 240 - 3,8 129 1.010,4
14:58 15,0 13,8 14,6 93,0 3,8 217 - 3,8 131 1.010,4
14:57 15,0 13,8 14,6 93,0 4,0 257 - 3,8 118 1.010,4
14:56 15,0 13,8 14,6 92,5 4,4 257 - 3,8 113 1.010,4
14:55 15,0 13,7 15,0 92,0 4,4 250 - 3,8 115 1.010,4
14:54 15,0 13,7 15,0 92,0 4,3 263 - 3,8 124 1.010,4
14:53 15,0 13,7 14,6 92,0 4,3 246 - 3,8 130 1.010,4
14:52 15,0 13,7 14,6 92,0 4,4 251 - 3,8 120 1.010,4
14:51 15,0 13,7 14,6 92,0 4,5 243 - 3,8 104 1.010,5
14:50 15,1 13,7 14,6 92,0 4,5 260 - 3,8 81 1.010,4
14:49 15,1 13,8 14,6 92,0 4,1 255 - 3,8 76 1.010,4
14:48 15,1 13,8 14,7 92,0 3,8 216 - 3,8 108 1.010,4
14:47 15,1 13,8 14,7 92,0 3,8 258 - 3,8 151 1.010,4
14:46 15,1 13,8 14,7 92,0 3,6 261 - 3,8 169 1.010,4
14:45 15,1 13,8 14,7 92,0 3,8 194 - 3,6 136 1.010,4
14:44 15,2 13,9 14,7 92,0 4,1 242 - 3,6 76 1.010,4
14:43 15,2 13,9 14,8 92,0 4,3 248 - 3,6 132 1.010,4
14:42 15,2 13,9 14,8 92,0 4,0 224 - 3,6 132 1.010,4
14:41 15,2 13,9 14,8 92,0 3,7 247 - 3,6 148 1.010,4
14:40 15,3 13,9 14,8 92,0 3,6 230 - 3,6 157 1.010,5
14:39 15,3 14,0 14,8 92,0 3,4 217 - 3,6 150 1.010,5
14:38 15,3 14,0 14,8 92,0 3,4 255 - 3,6 162 1.010,4
14:37 15,3 14,0 14,8 92,0 3,8 250 - 3,6 136 1.010,5
14:36 15,3 14,0 14,9 92,0 4,3 243 - 3,6 111 1.010,5
14:35 15,3 14,0 14,9 92,0 4,4 242 - 3,6 99 1.010,5
14:34 15,3 14,0 14,9 92,0 4,4 263 - 3,6 111 1.010,5
14:33 15,3 14,0 14,9 92,0 4,5 238 - 3,6 101 1.010,5
14:32 15,4 14,0 15,3 91,4 3,1 239 - 3,6 106 1.010,5
14:31 15,4 13,9 15,3 91,0 2,8 350 - 3,6 114 1.010,6
14:30 15,4 14,0 15,3 91,0 2,5 244 - 3,6 93 1.010,6
14:29 15,5 14,0 15,4 91,0 3,9 201 - 3,6 103 1.010,6
14:28 15,5 14,0 15,4 91,0 3,6 253 - 3,6 126 1.010,5
14:27 15,5 14,0 15,4 91,0 3,7 223 - 3,6 140 1.010,5
14:26 15,5 14,0 15,4 91,0 4,1 236 - 3,6 134 1.010,5
14:25 15,6 14,1 15,5 91,0 4,0 234 - 3,6 135 1.010,5
14:24 15,6 14,1 15,5 91,0 3,6 258 - 3,6 135 1.010,5
14:23 15,6 14,1 15,5 91,0 3,4 237 - 3,6 139 1.010,5
14:22 15,5 14,0 15,4 91,0 3,4 248 - 3,6 142 1.010,5
14:21 15,5 14,0 15,4 91,0 3,5 228 - 3,6 139 1.010,5
14:20 15,5 14,0 15,4 91,0 3,7 242 - 3,6 125 1.010,5
14:19 15,5 14,0 15,4 91,0 4,1 244 - 3,6 107 1.010,6
14:18 15,5 14,0 15,4 91,0 4,2 243 - 3,6 101 1.010,5
14:17 15,5 14,0 15,4 91,0 4,1 214 - 3,6 90 1.010,5
14:16 15,5 14,0 15,4 91,0 4,3 249 - 3,6 82 1.010,5
14:15 15,5 13,9 15,3 90,5 4,6 242 - 3,6 79 1.010,6
14:14 15,5 14,0 15,4 90,7 4,8 228 - 3,6 89 1.010,6
14:13 15,5 14,0 15,4 91,0 5,0 209 - 3,6 106 1.010,5
14:12 15,5 13,9 15,3 90,1 4,7 229 - 3,6 94 1.010,5
14:11 15,5 13,9 15,3 90,0 5,0 270 - 3,6 74 1.010,5
14:10 15,6 13,9 15,4 90,0 4,3 267 - 3,6 67 1.010,6
14:09 15,6 13,9 15,4 90,0 3,2 350 - 3,6 72 1.010,5
14:08 15,6 13,9 15,4 90,0 2,7 223 - 3,6 80 1.010,5
14:07 15,5 13,9 15,3 90,0 4,7 214 - 3,6 85 1.010,5
14:06 15,5 13,9 15,3 90,0 4,6 244 - 3,6 87 1.010,5
14:05 15,5 13,9 15,3 90,0 4,9 225 - 3,6 76 1.010,5
14:04 15,5 13,9 15,3 90,0 4,8 230 - 3,6 57 1.010,5
14:03 15,5 13,9 15,3 90,0 4,9 256 - 3,6 47 1.010,5
14:02 15,5 13,9 15,3 90,0 4,8 251 - 3,6 42 1.010,5
14:01 15,6 13,9 15,3 89,8 5,5 199 - 3,6 41 1.010,5
14:00 15,6 13,7 15,2 89,0 5,9 234 - 3,6 40 1.010,4
 
13:59 15,6 13,8 15,3 89,0 6,2 247 - 3,6 46 1.010,4
13:58 15,6 13,8 15,3 89,0 6,1 259 - 3,6 59 1.010,4
13:57 15,7 13,8 15,3 89,0 5,9 255 - 3,6 74 1.010,4
13:56 15,7 13,8 15,3 89,0 5,7 257 - 3,6 77 1.010,4
13:55 15,7 13,9 15,4 89,0 5,6 254 - 3,6 78 1.010,4
13:54 15,7 13,9 15,4 89,0 5,4 252 - 3,6 82 1.010,4
13:53 15,8 13,9 15,4 89,0 5,3 226 - 3,6 90 1.010,4
13:52 15,8 13,9 15,4 89,0 5,2 252 - 3,6 96 1.010,4
13:51 15,8 14,0 15,5 89,0 4,8 241 - 3,6 92 1.010,4
13:50 15,8 14,0 15,5 89,0 4,8 199 - 3,6 99 1.010,4
13:49 15,8 14,0 15,5 89,0 4,6 228 - 3,6 94 1.010,4
13:48 15,8 14,0 15,5 89,0 4,7 242 - 3,6 84 1.010,4
13:47 15,8 14,0 15,5 89,0 4,8 249 - 3,6 88 1.010,4
13:46 15,8 14,0 15,5 89,0 5,1 241 - 3,6 96 1.010,4
13:45 15,8 14,0 15,5 89,0 4,5 270 - 3,6 86 1.010,4
13:44 15,8 14,0 15,5 89,0 4,3 190 - 3,6 65 1.010,4
13:43 15,8 14,0 15,5 89,0 4,9 222 - 3,6 52 1.010,4
13:42 15,8 14,0 15,5 89,0 5,2 234 - 3,6 51 1.010,3
13:41 15,8 14,0 15,5 89,0 5,2 247 - 3,6 52 1.010,4
13:40 15,8 14,0 15,5 89,0 4,9 238 - 3,6 51 1.010,4
13:39 15,8 13,9 15,4 88,4 4,8 238 - 3,6 49 1.010,3
13:38 15,8 13,8 15,4 88,0 4,8 252 - 3,6 48 1.010,4
13:37 15,8 13,8 15,4 88,0 4,8 236 - 3,6 48 1.010,4
13:36 15,9 13,9 15,4 88,0 4,7 255 - 3,6 51 1.010,4
13:35 15,9 13,9 15,5 88,0 4,7 214 - 3,6 52 1.010,4
13:34 15,9 14,0 15,5 88,0 4,8 249 - 3,6 53 1.010,3
13:33 16,0 14,0 15,6 88,0 4,9 249 - 3,6 68 1.010,3
13:32 16,0 14,0 15,6 88,0 4,9 241 - 3,6 71 1.010,3
13:31 16,0 14,0 15,6 88,0 4,9 231 - 3,6 74 1.010,3
13:30 16,0 14,0 15,6 88,0 4,9 226 - 3,6 75 1.010,4
13:29 16,1 14,1 15,6 88,0 4,7 239 - 3,6 81 1.010,4
13:28 16,1 14,1 15,6 88,0 4,6 247 - 3,6 88 1.010,4
13:27 16,1 14,1 15,7 88,0 4,5 245 - 3,6 89 1.010,4
13:26 16,1 14,1 15,7 88,0 4,5 224 - 3,6 96 1.010,4
13:25 16,1 14,1 15,7 88,0 4,6 246 - 3,6 103 1.010,4
13:24 16,1 14,1 15,7 88,0 4,6 229 - 3,6 104 1.010,4
13:23 16,1 14,1 15,7 88,0 4,5 245 - 3,6 105 1.010,4
13:22 16,1 14,1 15,7 88,0 4,3 208 - 3,6 111 1.010,4
13:21 16,1 14,0 15,6 87,3 4,2 243 - 3,6 111 1.010,4
13:20 16,2 14,0 15,6 87,0 4,3 251 - 3,6 114 1.010,4
13:19 16,2 14,0 15,6 87,0 4,2 240 - 3,6 122 1.010,4
13:18 16,2 14,0 15,6 87,0 4,1 240 - 3,6 129 1.010,4
13:17 16,2 14,0 15,6 87,0 4,1 252 - 3,6 126 1.010,4
13:16 16,2 14,0 15,6 87,0 4,5 250 - 3,6 108 1.010,4
13:15 16,2 14,0 15,6 87,0 4,6 249 - 3,6 72 1.010,4
13:14 16,2 14,0 15,6 87,0 4,6 212 - 3,6 75 1.010,4
13:13 16,2 14,0 15,7 87,0 4,4 250 - 3,6 73 1.010,4
13:12 16,2 14,1 15,7 87,0 4,6 259 - 3,6 61 1.010,4
13:11 16,3 14,1 15,7 87,0 4,6 240 - 3,6 62 1.010,4
13:10 16,3 14,1 15,8 87,0 4,6 245 - 3,6 81 1.010,4
13:09 16,3 14,2 15,8 87,0 4,6 260 - 3,6 97 1.010,4
13:08 16,3 14,2 15,8 87,0 4,4 251 - 3,6 104 1.010,4
13:07 16,4 14,2 15,8 86,8 4,2 252 - 3,6 106 1.010,4
13:06 16,4 14,0 15,7 86,0 4,2 219 - 3,6 107 1.010,4
13:05 16,4 14,1 15,7 86,0 4,3 253 - 3,6 135 1.010,4
13:04 16,4 14,1 15,8 86,0 4,5 250 - 3,6 154 1.010,4
13:03 16,4 14,1 15,8 86,0 4,9 222 - 3,6 150 1.010,5
13:02 16,4 14,1 15,8 86,0 5,0 256 - 3,6 138 1.010,5
13:01 16,5 14,1 15,8 86,0 5,0 250 - 3,6 134 1.010,4
13:00 16,5 14,1 15,8 86,0 4,8 253 - 3,6 144 1.010,4
 
12:59 16,5 14,2 15,8 86,0 4,7 250 - 3,6 155 1.010,4
12:58 16,5 14,2 15,8 86,0 4,6 245 - 3,6 161 1.010,4
12:57 16,5 14,2 15,8 86,0 4,4 246 - 3,6 178 1.010,4
12:56 16,5 14,2 15,8 86,0 4,3 252 - 3,6 182 1.010,4
12:55 16,5 14,2 15,8 86,0 4,3 258 - 3,6 193 1.010,4
12:54 16,5 14,2 15,8 86,0 4,3 233 - 3,6 184 1.010,4
12:53 16,5 14,2 15,8 86,0 4,2 238 - 3,6 179 1.010,4
12:52 16,5 14,2 15,8 86,0 4,4 251 - 3,6 145 1.010,4
12:51 16,5 14,2 15,8 86,0 4,4 249 - 3,6 127 1.010,4
12:50 16,5 14,1 15,8 85,9 4,6 234 - 3,6 138 1.010,4
12:49 16,5 14,0 15,8 85,0 4,4 244 - 3,6 144 1.010,4
12:48 16,6 14,0 15,8 85,0 4,3 207 - 3,6 142 1.010,3
12:47 16,6 14,1 15,8 85,0 4,1 230 - 3,6 164 1.010,3
12:46 16,6 14,1 15,8 85,0 4,1 242 - 3,6 185 1.010,3
12:45 16,7 14,1 15,9 85,0 4,2 222 - 3,6 195 1.010,3
12:44 16,7 14,1 15,9 85,0 4,1 243 - 3,6 207 1.010,3
12:43 16,7 14,1 15,9 85,0 3,8 213 - 3,6 218 1.010,3
12:42 16,7 14,2 15,9 85,0 3,6 197 - 3,6 228 1.010,3
12:41 16,8 14,2 16,0 85,0 3,2 239 - 3,6 235 1.010,3
12:40 16,8 14,2 16,0 85,0 3,6 263 - 3,6 235 1.010,3
12:39 16,8 14,2 16,0 85,0 3,6 243 - 3,6 229 1.010,3
12:38 16,8 14,2 16,0 85,0 3,5 244 - 3,6 230 1.010,3
12:37 16,8 14,2 16,0 85,0 3,4 250 - 3,6 235 1.010,4
12:36 16,8 14,2 16,0 85,0 3,4 253 - 3,6 238 1.010,4
12:35 16,8 14,2 16,0 85,0 3,2 225 - 3,6 237 1.010,4
12:34 16,7 14,2 15,9 85,0 3,3 220 - 3,6 238 1.010,4
12:33 16,8 14,2 16,0 85,0 3,7 248 - 3,6 236 1.010,4
12:32 16,8 14,2 16,0 85,0 3,8 226 - 3,6 237 1.010,4
12:31 16,7 14,2 16,0 85,0 3,6 222 - 3,6 232 1.010,4
12:30 16,7 14,2 16,0 85,0 3,6 234 - 3,6 223 1.010,4
12:29 16,8 14,2 16,0 85,0 3,8 255 - 3,6 217 1.010,4
12:28 16,8 14,2 16,0 85,0 3,8 229 - 3,6 223 1.010,4
12:27 16,8 14,1 15,9 84,4 3,6 224 - 3,6 226 1.010,3
12:26 16,8 14,2 16,0 84,8 3,7 259 - 3,6 206 1.010,3
12:25 16,8 14,1 15,9 84,0 3,9 222 - 3,6 198 1.010,4
12:24 16,8 14,1 15,9 84,0 4,0 231 - 3,6 196 1.010,4
12:23 16,9 14,2 16,0 84,0 3,9 233 - 3,6 188 1.010,3
12:22 16,9 14,2 16,0 84,0 4,0 240 - 3,6 194 1.010,3
12:21 17,0 14,3 16,1 84,0 3,8 240 - 3,6 197 1.010,3
12:20 17,1 14,4 16,2 83,8 3,6 260 - 3,6 193 1.010,3
12:19 17,2 14,3 16,1 83,0 3,4 242 - 3,6 190 1.010,3
12:18 17,2 14,3 16,2 83,0 3,4 267 - 3,6 190 1.010,4
12:17 17,3 14,4 16,3 83,0 3,5 236 - 3,6 199 1.010,4
12:16 17,3 14,4 16,3 83,0 3,3 249 - 3,6 213 1.010,4
12:15 17,3 14,4 16,3 83,0 3,2 207 - 3,6 222 1.010,3
12:14 17,3 14,4 16,3 83,0 3,3 215 - 3,6 230 1.010,3
12:13 17,3 14,4 16,3 83,0 3,6 212 - 3,6 236 1.010,4
12:12 17,3 14,4 16,3 83,0 4,0 211 - 3,6 237 1.010,4
12:11 17,3 14,4 16,3 83,0 4,1 201 - 3,6 234 1.010,4
12:10 17,3 14,6 16,4 83,8 3,9 201 - 3,6 229 1.010,3
12:09 17,3 14,6 16,4 84,0 3,4 199 - 3,6 225 1.010,3
12:08 17,3 14,6 16,4 84,0 3,4 228 - 3,6 222 1.010,3
12:07 17,4 14,7 16,5 84,4 3,4 225 - 3,6 220 1.010,3
12:06 17,4 14,8 16,6 85,0 2,7 228 - 3,6 218 1.010,3
12:05 17,3 14,8 16,6 85,0 1,9 174 - 3,6 220 1.010,3
12:04 17,3 14,8 16,6 85,0 1,7 202 - 3,6 220 1.010,3
12:03 17,3 14,8 16,6 85,0 2,0 242 - 3,6 222 1.010,3
12:02 17,3 14,7 16,5 84,7 2,4 208 - 3,6 222 1.010,3
12:01 17,3 14,7 16,5 84,5 2,6 234 - 3,6 220 1.010,3
12:00 17,3 14,8 16,5 85,0 2,6 199 - 3,6 218 1.010,3
 
11:59 17,3 14,8 16,5 85,0 2,3 228 - 3,6 215 1.010,3
11:58 17,3 14,8 16,5 85,0 2,0 205 - 3,6 209 1.010,3
11:57 17,3 14,6 16,4 84,2 2,0 228 - 3,6 208 1.010,3
11:56 17,3 14,8 16,5 85,0 2,6 200 - 3,6 206 1.010,3
11:55 17,3 14,8 16,6 85,0 2,8 224 - 3,6 206 1.010,3
11:54 17,3 14,8 16,5 85,0 2,4 233 - 3,6 206 1.010,3
11:53 17,3 14,7 16,5 85,0 1,9 217 - 3,6 205 1.010,3
11:52 17,3 14,6 16,4 84,1 2,0 236 - 3,6 201 1.010,3
11:51 17,3 14,6 16,4 84,0 2,2 234 - 3,6 198 1.010,3
11:50 17,3 14,6 16,4 84,0 2,5 249 - 3,6 192 1.010,3
11:49 17,3 14,6 16,4 84,0 2,9 240 - 3,6 186 1.010,4
11:48 17,4 14,6 16,5 84,0 3,4 214 - 3,6 176 1.010,4
11:47 17,4 14,7 16,5 84,0 3,4 215 - 3,6 167 1.010,4
11:46 17,4 14,7 16,5 84,0 3,0 236 - 3,6 160 1.010,4
11:45 17,4 14,7 16,5 84,0 2,7 233 - 3,6 155 1.010,4
11:44 17,5 14,7 16,6 84,0 2,4 239 - 3,6 156 1.010,4
11:43 17,5 14,8 16,6 84,0 1,9 231 - 3,6 159 1.010,4
11:42 17,5 14,7 16,6 84,0 1,5 206 - 3,6 163 1.010,4
11:41 17,5 14,7 16,6 84,0 1,2 227 - 3,6 161 1.010,3
11:40 17,5 14,6 16,4 83,1 1,3 194 - 3,6 157 1.010,3
11:39 17,5 14,6 16,5 83,0 1,8 220 - 3,6 152 1.010,4
11:38 17,5 14,6 16,5 83,0 2,3 224 - 3,6 148 1.010,3
11:37 17,6 14,7 16,5 83,0 2,4 252 - 3,6 146 1.010,3
11:36 17,6 14,7 16,6 83,0 2,2 232 - 3,6 148 1.010,3
11:35 17,6 14,7 16,5 83,0 2,1 187 - 3,6 149 1.010,3
11:34 17,6 14,7 16,6 83,0 2,0 219 - 3,6 149 1.010,3
11:33 17,6 14,7 16,6 83,0 1,8 165 - 3,6 149 1.010,3
11:32 17,7 14,8 16,7 83,0 1,7 190 - 3,6 149 1.010,4
11:31 17,7 14,8 16,6 83,0 1,5 208 - 3,6 148 1.010,3
11:30 17,7 14,8 16,7 83,0 1,4 247 - 3,6 146 1.010,3
11:29 17,7 14,8 16,7 83,0 1,6 209 - 3,6 143 1.010,4
11:28 17,7 14,8 16,7 83,0 1,5 205 - 3,6 142 1.010,4
11:27 17,7 14,8 16,6 83,0 1,0 200 - 3,6 141 1.010,4
11:26 17,7 14,8 16,7 83,0 0,8 203 - 3,6 140 1.010,4
11:25 17,7 14,8 16,6 83,0 0,9 203 - 3,6 139 1.010,4
11:24 17,7 14,8 16,6 83,0 0,8 174 - 3,6 137 1.010,4
11:23 17,7 14,8 16,6 83,0 0,6 155 - 3,6 135 1.010,4
11:22 17,7 14,8 16,6 83,0 0,7 222 - 3,6 135 1.010,4
11:21 17,7 14,8 16,6 83,0 1,0 222 - 3,6 136 1.010,4
11:20 17,7 14,8 16,6 83,0 1,0 226 - 3,6 139 1.010,4
11:19 17,6 14,7 16,6 83,0 0,8 192 - 3,6 142 1.010,4
11:18 17,7 14,8 16,6 83,0 0,8 199 - 3,6 144 1.010,4
11:17 17,6 14,7 16,6 83,0 0,8 151 - 3,6 146 1.010,4
11:16 17,6 14,7 16,6 83,0 0,9 155 - 3,6 145 1.010,4
11:15 17,6 14,7 16,6 83,0 1,0 121 - 3,6 144 1.010,4
11:14 17,6 14,7 16,6 83,0 1,0 182 - 3,6 142 1.010,4
11:13 17,6 14,7 16,6 83,0 0,9 192 - 3,6 139 1.010,4
11:12 17,6 14,7 16,6 83,0 0,7 213 - 3,6 134 1.010,4
11:11 17,6 14,7 16,6 83,0 0,7 216 - 3,6 130 1.010,3
11:10 17,6 14,7 16,6 83,0 0,8 219 - 3,6 125 1.010,4
11:09 17,6 14,7 16,6 83,0 0,7 196 - 3,6 121 1.010,4
11:08 17,6 14,7 16,6 83,0 0,4 192 - 3,6 115 1.010,4
11:07 17,6 14,7 16,6 83,0 0,3 186 - 3,6 109 1.010,4
11:06 17,6 14,7 16,6 83,0 0,5 187 - 3,6 103 1.010,4
11:05 17,6 14,7 16,6 83,0 1,0 180 - 3,6 97 1.010,4
11:04 17,6 14,7 16,6 83,0 1,4 203 - 3,6 97 1.010,4
11:03 17,6 14,7 16,6 83,0 1,3 191 - 3,6 97 1.010,4
11:02 17,6 14,7 16,6 83,0 1,1 216 - 3,6 97 1.010,3
11:01 17,6 14,7 16,6 83,0 0,8 197 - 3,6 97 1.010,3
11:00 17,6 14,7 16,6 83,0 0,7 178 - 3,6 95 1.010,4
 
10:59 17,6 14,7 16,6 83,0 0,7 155 - 3,6 93 1.010,4
10:58 17,6 14,7 16,5 83,0 0,7 199 - 3,6 93 1.010,4
10:57 17,6 14,7 16,5 83,0 0,7 181 - 3,6 96 1.010,4
10:56 17,6 14,7 16,5 83,0 0,8 221 - 3,6 104 1.010,4
10:55 17,6 14,7 16,5 83,0 0,8 200 - 3,6 119 1.010,4
10:54 17,6 14,7 16,5 83,0 0,8 191 - 3,6 134 1.010,4
10:53 17,6 14,7 16,5 83,0 0,7 132 - 3,6 146 1.010,3
10:52 17,5 14,6 16,5 83,0 0,4 236 - 3,6 153 1.010,3
10:51 17,5 14,6 16,5 83,0 0,2 70 - 3,6 155 1.010,3
10:50 17,5 14,6 16,5 83,0 0,6 116 - 3,6 151 1.010,3
10:49 17,5 14,6 16,5 83,0 0,5 111 - 3,6 147 1.010,3
10:48 17,5 14,6 16,5 83,0 0,7 205 - 3,6 141 1.010,3
10:47 17,5 14,6 16,5 83,0 0,8 184 - 3,6 139 1.010,3
10:46 17,5 14,6 16,4 83,0 1,0 222 - 3,6 141 1.010,3
10:45 17,5 14,6 16,4 83,0 0,9 196 - 3,6 152 1.010,2
10:44 17,5 14,6 16,4 83,0 0,9 103 - 3,6 155 1.010,2
10:43 17,5 14,6 16,4 83,0 0,9 123 - 3,6 164 1.010,2
10:42 17,5 14,6 16,4 83,0 0,9 176 - 3,6 173 1.010,2
10:41 17,4 14,5 16,4 83,0 1,0 98 - 3,6 180 1.010,2
10:40 17,4 14,5 16,4 83,0 1,1 133 - 3,6 181 1.010,2
10:39 17,4 14,5 16,4 83,0 1,1 135 - 3,6 180 1.010,2
10:38 17,4 14,5 16,4 83,0 0,8 161 - 3,6 176 1.010,2
10:37 17,4 14,5 16,4 83,0 0,8 84 - 3,6 165 1.010,2
10:36 17,4 14,5 16,4 83,0 0,7 116 - 3,6 155 1.010,3
10:35 17,4 14,5 16,4 83,0 0,8 195 - 3,6 144 1.010,3
10:34 17,4 14,5 16,4 83,0 0,8 93 - 3,6 136 1.010,3
10:33 17,4 14,5 16,3 83,0 0,9 182 - 3,6 134 1.010,2
10:32 17,3 14,4 16,3 83,0 0,8 134 - 3,6 134 1.010,3
10:31 17,3 14,4 16,3 83,0 1,0 107 - 3,6 136 1.010,2
10:30 17,3 14,6 16,4 83,9 1,3 122 - 3,6 137 1.010,2
10:29 17,3 14,6 16,4 84,0 1,4 156 - 3,6 138 1.010,2
10:28 17,3 14,6 16,4 84,0 1,0 86 - 3,6 142 1.010,2
10:27 17,3 14,6 16,4 84,0 0,7 51 - 3,6 153 1.010,2
10:26 17,2 14,5 16,3 84,0 0,6 179 - 3,6 170 1.010,2
10:25 17,2 14,5 16,3 84,0 0,8 118 - 3,6 193 1.010,2
10:24 17,2 14,5 16,3 84,0 0,8 120 - 3,6 215 1.010,1
10:23 17,2 14,5 16,3 84,0 0,5 140 - 3,6 236 1.010,1
10:22 17,1 14,4 16,2 84,0 0,5 232 - 3,6 256 1.010,1
10:21 17,1 14,4 16,2 84,0 0,8 117 - 3,6 265 1.010,1
10:20 17,1 14,4 16,2 84,0 1,2 97 - 3,6 271 1.010,1
10:19 17,1 14,5 16,3 84,8 1,2 43 - 3,6 265 1.010,1
10:18 17,0 14,5 16,3 85,0 1,1 60 - 3,6 255 1.010,1
10:17 17,0 14,5 16,2 85,0 0,4 10 - 3,6 245 1.010,1
10:16 17,0 14,4 16,2 85,0 0,4 186 - 3,6 238 1.010,1
10:15 16,9 14,4 16,2 85,0 1,0 180 - 3,6 243 1.010,2
10:14 16,9 14,4 16,1 85,0 1,0 176 - 3,6 255 1.010,2
10:13 16,9 14,3 16,1 85,0 1,0 113 - 3,6 258 1.010,1
10:12 16,8 14,3 16,1 85,0 1,4 76 - 3,6 246 1.010,2
10:11 16,8 14,3 16,0 85,0 0,9 99 - 3,6 239 1.010,2
10:10 16,8 14,3 16,0 85,0 0,2 304 - 3,6 238 1.010,2
10:09 16,8 14,2 16,0 85,0 0,6 163 - 3,6 236 1.010,2
10:08 16,8 14,2 16,0 85,0 0,9 206 - 3,6 221 1.010,2
10:07 16,7 14,2 16,0 85,0 1,0 130 - 3,6 211 1.010,2
10:06 16,7 14,2 15,9 85,0 1,1 165 - 3,6 203 1.010,2
10:05 16,7 14,2 15,9 85,3 1,0 113 - 3,6 195 1.010,2
10:04 16,7 14,3 16,0 86,0 1,0 100 - 3,6 189 1.010,2
10:03 16,7 14,3 16,0 86,0 0,8 171 - 3,6 185 1.010,1
10:02 16,6 14,3 16,0 86,0 0,4 59 - 3,6 178 1.010,1
10:01 16,6 14,3 16,0 86,0 0,5 231 - 3,6 172 1.010,2
10:00 16,6 14,3 16,0 86,2 0,6 200 - 3,6 167 1.010,2
 
09:59 16,6 14,4 16,0 86,7 1,0 78 - 3,6 163 1.010,2
09:58 16,6 14,2 15,9 86,0 1,2 76 - 3,6 161 1.010,2
09:57 16,5 14,2 15,9 86,0 0,7 125 - 3,6 158 1.010,2
09:56 16,5 14,3 15,9 86,7 0,8 161 - 3,6 155 1.010,2
09:55 16,5 14,3 16,0 87,0 1,0 106 - 3,6 154 1.010,1
09:54 16,5 14,3 15,9 87,0 1,1 115 - 3,6 151 1.010,2
09:53 16,5 14,3 15,9 87,0 1,2 170 - 3,6 149 1.010,2
09:52 16,5 14,3 15,9 87,0 1,0 118 - 3,6 149 1.010,2
09:51 16,4 14,3 15,9 87,0 0,5 56 - 3,6 149 1.010,2
09:50 16,4 14,4 16,0 87,8 0,7 234 - 3,6 154 1.010,2
09:49 16,4 14,4 16,0 88,0 1,3 175 - 3,6 158 1.010,2
09:48 16,4 14,4 16,0 88,0 0,9 222 - 3,6 164 1.010,2
09:47 16,3 14,3 15,9 88,0 0,5 82 - 3,6 168 1.010,3
09:46 16,3 14,3 15,9 88,0 1,0 78 - 3,6 171 1.010,3
09:45 16,3 14,3 15,9 88,0 0,9 97 - 3,6 179 1.010,3
09:44 16,3 14,3 15,9 88,0 0,7 111 - 3,6 180 1.010,3
09:43 16,2 14,4 15,9 88,9 0,7 180 - 3,6 183 1.010,3
09:42 16,2 14,4 15,9 89,0 0,5 211 - 3,6 183 1.010,3
09:41 16,2 14,3 15,9 89,0 0,5 78 - 3,6 183 1.010,3
09:40 16,2 14,3 15,9 89,0 0,9 101 - 3,6 185 1.010,3
09:39 16,1 14,3 15,8 89,0 0,8 109 - 3,6 185 1.010,3
09:38 16,1 14,3 15,8 89,0 0,6 170 - 3,6 183 1.010,4
09:37 16,1 14,2 15,8 89,0 0,7 122 - 3,6 181 1.010,4
09:36 16,0 14,2 15,7 89,0 0,8 114 - 3,6 183 1.010,3
09:35 16,0 14,2 15,7 89,0 0,8 84 - 3,6 185 1.010,3
09:34 16,0 14,2 15,7 89,0 0,7 140 - 3,6 185 1.010,3
09:33 16,0 14,1 15,6 89,0 0,8 129 - 3,6 184 1.010,3
09:32 15,9 14,3 15,7 89,8 0,7 74 - 3,6 175 1.010,3
09:31 15,9 14,3 15,7 90,0 0,8 174 - 3,6 170 1.010,3
09:30 15,9 14,2 15,7 90,0 0,9 109 - 3,6 169 1.010,3
09:29 15,9 14,2 15,7 90,0 0,9 163 - 3,6 171 1.010,3
09:28 15,9 14,2 15,7 90,0 0,9 165 - 3,6 177 1.010,3
09:27 15,8 14,2 15,6 90,0 0,7 122 - 3,6 192 1.010,3
09:26 15,8 14,2 15,6 90,0 0,7 199 - 3,6 220 1.010,3
09:25 15,8 14,1 15,6 90,0 0,6 102 - 3,6 239 1.010,3
09:24 15,8 14,1 15,6 90,0 0,6 215 - 3,6 286 1.010,3
09:23 15,8 14,2 15,6 90,4 0,8 167 - 3,6 265 1.010,3
09:22 15,8 14,3 15,7 91,0 0,9 149 - 3,6 247 1.010,3
09:21 15,7 14,2 15,6 91,0 0,8 129 - 3,6 227 1.010,3
09:20 15,7 14,2 15,6 91,0 0,6 77 - 3,6 225 1.010,3
09:19 15,7 14,2 15,6 91,0 0,4 193 - 3,6 220 1.010,4
09:18 15,6 14,2 15,6 91,0 0,4 53 - 3,6 218 1.010,4
09:17 15,6 14,1 15,5 91,0 0,5 97 - 3,6 231 1.010,4
09:16 15,6 14,1 15,5 91,0 0,5 144 - 3,6 238 1.010,4
09:15 15,5 14,1 15,5 91,0 0,4 86 - 3,6 305 1.010,4
09:14 15,5 14,0 15,4 91,0 0,1 233 - 3,6 287 1.010,4
09:13 15,5 14,0 15,4 91,0 0,3 219 - 3,6 267 1.010,5
09:12 15,4 14,0 15,4 91,0 0,5 184 - 3,6 235 1.010,5
09:11 15,4 14,0 15,4 91,0 0,9 145 - 3,6 221 1.010,4
09:10 15,4 13,9 15,3 91,0 0,9 159 - 3,6 190 1.010,4
09:09 15,4 13,9 15,3 91,0 0,7 172 - 3,6 188 1.010,4
09:08 15,4 13,9 15,3 91,0 0,5 137 - 3,6 204 1.010,4
09:07 15,3 13,9 15,3 91,0 0,2 255 - 3,6 236 1.010,4
09:06 15,3 13,8 15,2 91,0 0,2 86 - 3,6 246 1.010,4
09:05 15,3 13,9 15,2 91,5 0,4 174 - 3,6 251 1.010,4
09:04 15,3 14,0 14,8 92,0 0,4 165 - 3,6 222 1.010,5
09:03 15,2 13,9 14,8 92,0 0,3 147 - 3,6 181 1.010,5
09:02 15,2 13,9 14,8 92,0 0,4 205 - 3,6 172 1.010,4
09:01 15,2 13,7 15,1 91,0 0,3 136 - 3,6 169 1.010,5
09:00 15,2 13,7 15,1 91,4 0,4 42 - 3,6 166 1.010,5
 
08:59 15,2 13,9 14,7 92,0 0,5 174 - 3,6 162 1.010,5
08:58 15,1 13,8 14,7 92,0 0,6 231 - 3,6 160 1.010,5
08:57 15,1 13,8 14,7 92,0 0,4 107 - 3,6 161 1.010,5
08:56 15,1 13,8 14,7 92,0 0,5 188 - 3,6 164 1.010,5
08:55 15,1 13,8 14,6 92,0 0,6 150 - 3,6 166 1.010,5
08:54 15,1 13,8 14,6 92,0 0,8 189 - 3,6 162 1.010,5
08:53 15,1 13,8 14,6 92,0 1,2 210 - 3,6 160 1.010,5
08:52 15,1 13,7 14,6 92,0 1,2 169 - 3,6 168 1.010,5
08:51 15,0 13,7 14,6 92,0 1,1 124 - 3,6 183 1.010,4
08:50 15,0 13,7 14,6 92,0 1,0 185 - 3,6 204 1.010,4
08:49 15,0 13,7 15,0 92,0 1,0 171 - 3,6 210 1.010,5
08:48 14,9 13,6 14,5 92,0 0,6 161 - 3,6 238 1.010,5
08:47 14,9 13,6 14,9 92,0 0,3 273 - 3,6 210 1.010,5
08:46 14,9 13,6 14,9 92,0 0,3 116 - 3,6 186 1.010,5
08:45 14,9 13,6 14,9 92,0 0,5 150 - 3,6 182 1.010,5
08:44 14,8 13,5 14,8 92,0 0,4 202 - 3,6 180 1.010,6
08:43 14,8 13,5 14,8 92,0 0,3 82 - 3,6 188 1.010,6
08:42 14,8 13,4 14,7 92,0 0,4 171 - 3,6 250 1.010,6
08:41 14,7 13,4 14,7 92,0 0,5 110 - 3,6 196 1.010,6
08:40 14,7 13,4 14,7 92,0 0,6 182 - 3,6 186 1.010,5
08:39 14,7 13,4 14,7 92,0 0,7 105 - 3,6 217 1.010,6
08:38 14,7 13,4 14,6 92,0 0,9 75 - 3,6 217 1.010,6
08:37 14,6 13,3 14,6 92,0 0,5 98 - 3,6 213 1.010,5
08:36 14,6 13,3 14,6 92,0 0,3 216 - 3,6 252 1.010,5
08:35 14,6 13,2 14,5 92,0 0,2 122 - 3,6 257 1.010,4
08:34 14,6 13,2 14,5 92,0 0,3 81 - 3,6 240 1.010,5
08:33 14,5 13,2 14,5 92,0 0,4 126 - 3,6 207 1.010,5
08:32 14,5 13,2 14,5 92,0 0,5 121 - 3,6 179 1.010,5
08:31 14,4 13,1 14,4 92,0 0,5 113 - 3,6 145 1.010,5
08:30 14,4 13,1 14,4 92,0 0,4 143 - 3,6 139 1.010,6
08:29 14,4 13,1 14,4 92,0 0,5 127 - 3,6 143 1.010,5
08:28 14,4 13,1 14,4 92,0 0,5 213 - 3,6 136 1.010,5
08:27 14,4 13,1 14,4 92,0 0,5 94 - 3,6 139 1.010,5
08:26 14,4 13,1 14,3 92,0 0,7 90 - 3,6 142 1.010,5
08:25 14,3 13,0 14,3 92,0 0,7 159 - 3,6 127 1.010,6
08:24 14,3 13,0 14,3 92,0 0,3 97 - 3,6 125 1.010,5
08:23 14,3 13,0 14,3 92,0 0,3 309 - 3,6 127 1.010,6
08:22 14,3 13,0 14,3 92,0 0,7 91 - 3,6 129 1.010,6
08:21 14,3 13,0 14,2 92,0 1,1 99 - 3,6 129 1.010,6
08:20 14,3 13,0 14,2 92,0 0,5 92 - 3,6 127 1.010,5
08:19 14,3 13,0 14,2 92,0 0,3 265 - 3,6 128 1.010,6
08:18 14,3 13,0 14,2 92,0 0,7 57 - 3,6 131 1.010,5
08:17 14,2 12,9 14,2 92,0 1,1 97 - 3,6 134 1.010,5
08:16 14,2 12,9 14,2 92,0 0,9 75 - 3,6 134 1.010,5
08:15 14,2 12,9 14,2 92,0 0,7 82 - 3,6 132 1.010,5
08:14 14,2 12,9 14,1 92,0 0,4 161 - 3,6 132 1.010,5
08:13 14,2 12,9 14,1 92,0 0,4 296 - 3,6 132 1.010,5
08:12 14,2 12,9 14,1 92,0 0,4 144 - 3,6 130 1.010,5
08:11 14,1 12,8 14,1 92,0 0,5 95 - 3,6 132 1.010,5
08:10 14,1 12,8 14,1 92,0 0,2 350 - 3,6 158 1.010,5
08:09 14,1 12,8 14,0 92,1 0,2 213 - 3,6 179 1.010,5
08:08 14,0 12,9 13,7 92,8 0,2 212 - 3,6 192 1.010,5
08:07 14,0 12,7 13,9 92,0 0,4 61 - 3,6 200 1.010,5
08:06 14,0 12,7 13,9 92,0 0,5 136 - 3,6 202 1.010,5
08:05 14,0 12,6 13,9 92,0 0,5 15 - 3,6 154 1.010,5
08:04 13,9 12,6 13,8 92,0 0,5 93 - 3,6 162 1.010,5
08:03 13,9 12,6 13,8 92,0 0,6 86 - 3,6 169 1.010,5
08:02 13,8 12,5 13,8 92,0 0,6 76 - 3,6 183 1.010,5
08:01 13,8 12,5 13,7 92,0 0,7 14 - 3,6 151 1.010,4
08:00 13,8 12,5 13,7 92,0 0,3 57 - 3,6 157 1.010,5
 
07:59 13,8 12,5 13,7 92,0 0,2 207 - 3,6 174 1.010,5
07:58 13,8 12,5 13,7 92,0 0,4 107 - 3,6 186 1.010,5
07:57 13,7 12,4 13,6 92,0 0,5 98 - 3,6 182 1.010,5
07:56 13,7 12,4 13,6 92,0 0,5 104 - 3,6 168 1.010,5
07:55 13,7 12,4 13,6 92,0 0,5 64 - 3,6 157 1.010,4
07:54 13,7 12,4 13,6 92,0 0,4 86 - 3,6 165 1.010,4
07:53 13,6 12,3 13,6 92,0 0,3 172 - 3,6 147 1.010,4
07:52 13,6 12,3 13,5 92,0 0,2 84 - 3,6 110 1.010,4
07:51 13,6 12,3 13,5 92,0 0,2 88 - 3,6 96 1.010,4
07:50 13,6 12,3 13,5 92,0 0,1 66 - 3,6 90 1.010,4
07:49 13,6 12,3 13,5 92,0 0,0 198 - 3,6 85 1.010,4
07:48 13,6 12,3 13,5 92,0 0,1 201 - 3,6 81 1.010,4
07:47 13,6 12,3 13,5 92,0 0,2 194 - 3,6 79 1.010,4
07:46 13,6 12,3 13,5 92,0 0,2 224 - 3,6 76 1.010,3
07:45 13,6 12,3 13,5 92,0 0,4 93 - 3,6 73 1.010,3
07:44 13,6 12,3 13,5 92,0 0,5 158 - 3,6 71 1.010,3
07:43 13,5 12,2 13,4 92,0 0,5 155 - 3,6 69 1.010,3
07:42 13,5 12,2 13,4 92,0 0,7 68 - 3,6 69 1.010,3
07:41 13,5 12,2 13,4 92,0 0,6 101 - 3,6 68 1.010,4
07:40 13,5 12,2 13,4 92,0 0,3 197 - 3,6 70 1.010,4
07:39 13,5 12,2 13,4 92,0 0,3 38 - 3,6 68 1.010,3
07:38 13,5 12,2 13,4 92,0 0,6 62 - 3,6 71 1.010,4
07:37 13,5 12,2 13,4 92,0 0,3 15 - 3,6 70 1.010,4
07:36 13,5 12,2 13,4 92,0 0,3 184 - 3,6 60 1.010,4
07:35 13,5 12,2 13,4 92,0 0,5 113 - 3,6 53 1.010,4
07:34 13,5 12,2 13,4 92,0 0,6 189 - 3,6 51 1.010,4
07:33 13,4 12,1 13,4 92,0 0,6 151 - 3,6 49 1.010,5
07:32 13,4 12,1 13,4 92,0 0,7 140 - 3,6 55 1.010,5
07:31 13,4 12,1 13,4 92,0 0,6 174 - 3,6 56 1.010,5
07:30 13,4 12,1 13,4 92,0 0,5 178 - 3,6 47 1.010,5
07:29 13,4 12,1 13,3 92,0 0,2 117 - 3,6 47 1.010,5
07:28 13,4 12,1 13,3 92,0 0,3 256 - 3,6 47 1.010,5
07:27 13,4 12,1 13,3 92,0 0,3 221 - 3,6 47 1.010,4
07:26 13,4 12,1 13,3 92,0 0,2 51 - 3,6 47 1.010,4
07:25 13,4 12,1 13,3 92,0 0,2 157 - 3,6 46 1.010,4
07:24 13,4 12,1 13,3 92,0 0,0 262 - 3,6 46 1.010,4
07:23 13,4 12,1 13,3 92,0 0,6 51 - 3,6 44 1.010,5
07:22 13,4 12,1 13,3 92,0 0,9 99 - 3,6 43 1.010,4
07:21 13,4 12,1 13,3 92,0 0,4 93 - 3,6 41 1.010,4
07:20 13,4 12,1 13,3 92,0 0,3 228 - 3,6 40 1.010,5
07:19 13,4 12,1 13,3 92,0 0,5 84 - 3,6 39 1.010,5
07:18 13,4 12,1 13,3 92,0 0,8 120 - 3,6 39 1.010,4
07:17 13,4 12,1 13,3 92,0 1,1 161 - 3,6 37 1.010,4
07:16 13,4 12,1 13,3 92,0 1,1 112 - 3,6 36 1.010,4
07:15 13,3 12,0 13,2 92,0 1,3 76 - 3,6 34 1.010,4
07:14 13,3 12,0 13,2 92,0 1,2 105 - 3,6 33 1.010,4
07:13 13,3 12,0 13,2 92,0 0,9 126 - 3,6 33 1.010,4
07:12 13,3 12,0 13,2 92,0 0,3 176 - 3,6 33 1.010,4
07:11 13,3 12,0 13,2 92,0 0,9 345 - 3,6 35 1.010,3
07:10 13,3 12,0 13,2 92,0 0,6 84 - 3,6 36 1.010,4
07:09 13,3 12,0 13,2 92,0 0,6 327 - 3,6 37 1.010,4
07:08 13,3 12,0 13,2 92,0 0,9 278 - 3,6 37 1.010,4
07:07 13,3 12,0 13,2 92,0 0,8 97 - 3,6 37 1.010,4
07:06 13,3 12,0 13,2 92,0 0,8 336 - 3,6 35 1.010,4
07:05 13,3 12,0 13,2 92,0 0,8 125 - 3,6 33 1.010,4
07:04 13,3 12,0 13,2 92,0 0,9 84 - 3,6 33 1.010,4
07:03 13,3 12,0 13,2 92,0 1,2 30 - 3,6 31 1.010,4
07:02 13,3 12,0 13,2 92,0 0,6 158 - 3,6 30 1.010,4
07:01 13,3 12,0 13,2 92,0 0,8 77 - 3,6 30 1.010,4
07:00 13,3 12,0 13,2 92,0 0,9 341 - 3,6 30 1.010,4
 
06:59 13,2 11,9 13,1 92,0 0,8 89 - 3,6 28 1.010,4
06:58 13,2 11,9 13,1 92,0 0,8 107 - 3,6 28 1.010,5
06:57 13,2 11,9 13,1 92,0 0,8 144 - 3,6 27 1.010,5